Time,TemperatureF,DewpointF,PressureIn,WindDirection,WindDirectionDegrees,WindSpeedMPH,WindSpeedGustMPH,Humidity,HourlyPrecipIn,Conditions,Clouds,dailyrainin,SoftwareType,DateUTC
2013-10-19 00:02:00,37.4,9.5,29.09,NW,326,0.0,2.7,31,0.00,,---,0.00,VWS V14.01,2013-10-19 05:02:00,
2013-10-19 00:03:00,37.4,9.5,29.09,NW,320,0.0,0.0,31,0.00,,---,0.00,VWS V14.01,2013-10-19 05:03:00,
2013-10-19 00:07:00,37.4,9.5,29.09,SE,135,0.0,0.0,31,0.00,,---,0.00,VWS V14.01,2013-10-19 05:07:00,
2013-10-19 00:08:00,37.4,9.5,29.09,SE,135,0.0,0.0,31,0.00,,---,0.00,VWS V14.01,2013-10-19 05:08:00,
2013-10-19 00:12:00,37.2,9.4,29.09,North,9,0.0,0.0,31,0.00,,---,0.00,VWS V14.01,2013-10-19 05:12:00,
2013-10-19 00:13:00,37.2,9.4,29.09,North,9,0.0,0.0,31,0.00,,---,0.00,VWS V14.01,2013-10-19 05:13:00,
2013-10-19 00:17:00,37.2,9.4,29.09,West,259,0.0,0.0,31,0.00,,---,0.00,VWS V14.01,2013-10-19 05:17:00,
2013-10-19 00:18:00,37.2,9.4,29.09,NNE,27,0.0,0.0,31,0.00,,---,0.00,VWS V14.01,2013-10-19 05:18:00,
2013-10-19 00:19:00,37.2,9.4,29.09,SW,236,0.0,0.0,31,0.00,,---,0.00,VWS V14.01,2013-10-19 05:19:00,
2013-10-19 00:22:00,37.0,9.2,29.09,SE,134,0.0,0.0,31,0.00,,---,0.00,VWS V14.01,2013-10-19 05:22:00,
2013-10-19 00:23:00,37.0,9.2,29.09,SE,138,0.0,0.0,31,0.00,,---,0.00,VWS V14.01,2013-10-19 05:23:00,
2013-10-19 00:24:00,37.0,9.2,29.09,South,180,0.0,0.0,31,0.00,,---,0.00,VWS V14.01,2013-10-19 05:24:00,
2013-10-19 00:27:00,37.0,9.2,29.09,South,180,0.0,0.0,31,0.00,,---,0.00,VWS V14.01,2013-10-19 05:27:00,
2013-10-19 00:28:00,37.0,9.2,29.09,South,180,0.0,0.0,31,0.00,,---,0.00,VWS V14.01,2013-10-19 05:28:00,
2013-10-19 00:29:00,37.0,9.2,29.09,South,180,0.0,0.0,31,0.00,,---,0.00,VWS V14.01,2013-10-19 05:29:00,
2013-10-19 00:32:00,37.0,9.2,29.09,South,173,0.0,0.0,31,0.00,,---,0.00,VWS V14.01,2013-10-19 05:32:00,
2013-10-19 00:33:00,37.0,9.2,29.09,WSW,237,0.0,0.0,31,0.00,,---,0.00,VWS V14.01,2013-10-19 05:33:00,
2013-10-19 00:34:00,37.0,9.2,29.09,WSW,237,0.0,0.0,31,0.00,,---,0.00,VWS V14.01,2013-10-19 05:34:00,
2013-10-19 00:35:00,37.0,9.2,29.09,South,171,0.0,3.1,31,0.00,,---,0.00,VWS V14.01,2013-10-19 05:35:00,
2013-10-19 00:37:00,37.0,9.2,29.09,South,185,0.0,0.0,31,0.00,,---,0.00,VWS V14.01,2013-10-19 05:37:00,
2013-10-19 00:38:00,37.0,9.2,29.09,South,190,0.0,2.7,31,0.00,,---,0.00,VWS V14.01,2013-10-19 05:38:00,
2013-10-19 00:39:00,37.0,9.2,29.09,South,190,0.0,2.7,31,0.00,,---,0.00,VWS V14.01,2013-10-19 05:39:00,
2013-10-19 00:40:00,37.0,9.2,29.09,South,190,0.0,0.0,31,0.00,,---,0.00,VWS V14.01,2013-10-19 05:40:00,
2013-10-19 00:42:00,36.9,9.1,29.09,South,190,0.0,0.0,31,0.00,,---,0.00,VWS V14.01,2013-10-19 05:42:00,
2013-10-19 00:43:00,36.9,9.1,29.09,South,190,0.0,0.0,31,0.00,,---,0.00,VWS V14.01,2013-10-19 05:43:00,
2013-10-19 00:44:00,36.9,9.1,29.09,South,190,0.0,0.0,31,0.00,,---,0.00,VWS V14.01,2013-10-19 05:44:00,
2013-10-19 00:45:00,36.9,9.1,29.09,South,190,0.0,0.0,31,0.00,,---,0.00,VWS V14.01,2013-10-19 05:45:00,
2013-10-19 00:47:00,36.9,9.1,29.09,South,190,0.0,0.0,31,0.00,,---,0.00,VWS V14.01,2013-10-19 05:47:00,
2013-10-19 00:49:00,36.9,9.1,29.09,South,190,0.0,0.0,31,0.00,,---,0.00,VWS V14.01,2013-10-19 05:49:00,
2013-10-19 00:50:00,36.9,9.1,29.09,South,190,0.0,0.0,31,0.00,,---,0.00,VWS V14.01,2013-10-19 05:50:00,
2013-10-19 00:51:00,36.9,9.1,29.09,South,190,0.0,0.0,31,0.00,,---,0.00,VWS V14.01,2013-10-19 05:51:00,
2013-10-19 00:53:00,36.9,9.1,29.09,South,190,0.0,0.0,31,0.00,,---,0.00,VWS V14.01,2013-10-19 05:53:00,
2013-10-19 00:54:00,36.7,8.9,29.06,South,190,0.0,0.0,31,0.00,,---,0.00,VWS V14.01,2013-10-19 05:54:00,
2013-10-19 00:55:00,36.7,8.9,29.06,South,190,0.0,0.0,31,0.00,,---,0.00,VWS V14.01,2013-10-19 05:55:00,
2013-10-19 00:56:00,36.7,8.9,29.06,South,190,0.0,0.0,31,0.00,,---,0.00,VWS V14.01,2013-10-19 05:56:00,
2013-10-19 00:58:00,36.7,8.9,29.06,South,190,0.0,0.0,31,0.00,,---,0.00,VWS V14.01,2013-10-19 05:58:00,
2013-10-19 00:59:00,36.7,8.9,29.06,SSE,159,0.0,0.0,31,0.00,,---,0.00,VWS V14.01,2013-10-19 05:59:00,
2013-10-19 01:00:00,36.7,8.9,29.06,SSE,159,0.0,0.0,31,0.00,,---,0.00,VWS V14.01,2013-10-19 06:00:00,
2013-10-19 01:01:00,36.7,8.9,29.06,SSE,159,0.0,0.0,31,0.00,,---,0.00,VWS V14.01,2013-10-19 06:01:00,
2013-10-19 01:03:00,36.7,8.9,29.06,SSE,159,0.0,0.0,31,0.00,,---,0.00,VWS V14.01,2013-10-19 06:03:00,
2013-10-19 01:04:00,36.7,8.9,29.06,SSE,159,0.0,0.0,31,0.00,,---,0.00,VWS V14.01,2013-10-19 06:04:00,
2013-10-19 01:05:00,36.7,8.9,29.06,SSE,159,0.0,0.0,31,0.00,,---,0.00,VWS V14.01,2013-10-19 06:05:00,
2013-10-19 01:06:00,36.7,8.9,29.06,SSE,159,0.0,0.0,31,0.00,,---,0.00,VWS V14.01,2013-10-19 06:06:00,
2013-10-19 01:08:00,36.5,8.8,29.06,SSE,159,0.0,0.0,31,0.00,,---,0.00,VWS V14.01,2013-10-19 06:08:00,
2013-10-19 01:09:00,36.5,8.8,29.06,SW,235,0.0,0.0,31,0.00,,---,0.00,VWS V14.01,2013-10-19 06:09:00,
2013-10-19 01:10:00,36.5,8.8,29.06,SW,235,0.0,0.0,31,0.00,,---,0.00,VWS V14.01,2013-10-19 06:10:00,
2013-10-19 01:11:00,36.5,8.8,29.06,SW,235,0.0,0.0,31,0.00,,---,0.00,VWS V14.01,2013-10-19 06:11:00,
2013-10-19 01:13:00,36.5,8.8,29.06,SW,235,0.0,0.0,31,0.00,,---,0.00,VWS V14.01,2013-10-19 06:13:00,
2013-10-19 01:14:00,36.5,8.8,29.06,SW,235,0.0,0.0,31,0.00,,---,0.00,VWS V14.01,2013-10-19 06:14:00,
2013-10-19 01:15:00,36.5,8.8,29.06,WSW,241,0.0,0.0,31,0.00,,---,0.00,VWS V14.01,2013-10-19 06:15:00,
2013-10-19 01:17:00,36.5,8.8,29.06,SW,220,0.0,0.0,31,0.00,,---,0.00,VWS V14.01,2013-10-19 06:17:00,
2013-10-19 01:18:00,36.3,8.6,29.06,SW,220,0.0,0.0,31,0.00,,---,0.00,VWS V14.01,2013-10-19 06:18:00,
2013-10-19 01:19:00,36.3,8.6,29.06,SW,221,0.0,0.0,31,0.00,,---,0.00,VWS V14.01,2013-10-19 06:19:00,
2013-10-19 01:20:00,36.3,8.6,29.06,SW,221,0.0,0.0,31,0.00,,---,0.00,VWS V14.01,2013-10-19 06:20:00,
2013-10-19 01:21:00,36.3,8.6,29.06,SW,220,0.0,0.0,31,0.00,,---,0.00,VWS V14.01,2013-10-19 06:21:00,
2013-10-19 01:22:00,36.3,8.6,29.06,SW,221,0.0,0.0,31,0.00,,---,0.00,VWS V14.01,2013-10-19 06:22:00,
2013-10-19 01:23:00,36.3,8.6,29.06,SW,220,0.0,0.0,31,0.00,,---,0.00,VWS V14.01,2013-10-19 06:23:00,
2013-10-19 01:25:00,36.3,8.6,29.06,SW,220,0.0,0.0,31,0.00,,---,0.00,VWS V14.01,2013-10-19 06:25:00,
2013-10-19 01:26:00,36.3,8.6,29.06,SW,220,0.0,0.0,31,0.00,,---,0.00,VWS V14.01,2013-10-19 06:26:00,
2013-10-19 01:27:00,36.3,8.6,29.06,SW,221,0.0,0.0,31,0.00,,---,0.00,VWS V14.01,2013-10-19 06:27:00,
2013-10-19 01:28:00,36.3,8.6,29.06,SW,220,0.0,0.0,31,0.00,,---,0.00,VWS V14.01,2013-10-19 06:28:00,
2013-10-19 01:30:00,36.3,8.6,29.06,SW,220,0.0,0.0,31,0.00,,---,0.00,VWS V14.01,2013-10-19 06:30:00,
2013-10-19 01:31:00,36.3,8.6,29.06,SW,220,0.0,0.0,31,0.00,,---,0.00,VWS V14.01,2013-10-19 06:31:00,
2013-10-19 01:32:00,36.3,8.6,29.06,SW,220,0.0,0.0,31,0.00,,---,0.00,VWS V14.01,2013-10-19 06:32:00,
2013-10-19 01:33:00,36.3,8.6,29.06,SW,220,0.0,0.0,31,0.00,,---,0.00,VWS V14.01,2013-10-19 06:33:00,
2013-10-19 01:35:00,36.3,8.6,29.06,SW,220,0.0,0.0,31,0.00,,---,0.00,VWS V14.01,2013-10-19 06:35:00,
2013-10-19 01:36:00,36.1,8.4,29.06,SW,220,0.0,0.0,31,0.00,,---,0.00,VWS V14.01,2013-10-19 06:36:00,
2013-10-19 01:37:00,36.1,8.4,29.06,SW,220,0.0,0.0,31,0.00,,---,0.00,VWS V14.01,2013-10-19 06:37:00,
2013-10-19 01:38:00,36.1,8.4,29.06,SW,220,0.0,0.0,31,0.00,,---,0.00,VWS V14.01,2013-10-19 06:38:00,
2013-10-19 01:40:00,36.1,8.4,29.06,WSW,250,0.0,0.0,31,0.00,,---,0.00,VWS V14.01,2013-10-19 06:40:00,
2013-10-19 01:41:00,36.1,8.4,29.06,WSW,250,0.0,0.0,31,0.00,,---,0.00,VWS V14.01,2013-10-19 06:41:00,
2013-10-19 01:42:00,36.1,8.4,29.06,WSW,250,0.0,0.0,31,0.00,,---,0.00,VWS V14.01,2013-10-19 06:42:00,
2013-10-19 01:43:00,36.1,8.4,29.06,WSW,250,0.0,0.0,31,0.00,,---,0.00,VWS V14.01,2013-10-19 06:43:00,
2013-10-19 01:45:00,36.1,8.4,29.06,WSW,250,0.0,0.0,31,0.00,,---,0.00,VWS V14.01,2013-10-19 06:45:00,
2013-10-19 01:46:00,36.1,8.4,29.06,South,181,0.0,0.0,31,0.00,,---,0.00,VWS V14.01,2013-10-19 06:46:00,
2013-10-19 01:47:00,36.1,8.4,29.06,South,188,0.0,0.0,31,0.00,,---,0.00,VWS V14.01,2013-10-19 06:47:00,
2013-10-19 01:48:00,36.1,8.4,29.06,WNW,288,4.0,4.0,31,0.00,,---,0.00,VWS V14.01,2013-10-19 06:48:00,
2013-10-19 01:50:00,36.1,8.4,29.06,NW,317,3.1,3.1,31,0.00,,---,0.00,VWS V14.01,2013-10-19 06:50:00,
2013-10-19 01:51:00,36.1,8.4,29.06,SW,220,2.2,2.2,31,0.00,,---,0.00,VWS V14.01,2013-10-19 06:51:00,
2013-10-19 01:52:00,36.1,8.4,29.06,SSW,203,0.0,0.0,31,0.00,,---,0.00,VWS V14.01,2013-10-19 06:52:00,
2013-10-19 01:53:00,36.1,8.4,29.06,SSW,208,0.0,0.0,31,0.00,,---,0.00,VWS V14.01,2013-10-19 06:53:00,
2013-10-19 01:55:00,36.1,8.4,29.06,SSW,207,0.0,2.7,31,0.00,,---,0.00,VWS V14.01,2013-10-19 06:55:00,
2013-10-19 01:56:00,36.1,8.4,29.06,WSW,250,0.0,0.0,31,0.00,,---,0.00,VWS V14.01,2013-10-19 06:56:00,
2013-10-19 01:57:00,36.1,8.4,29.06,WSW,250,0.0,0.0,31,0.00,,---,0.00,VWS V14.01,2013-10-19 06:57:00,
2013-10-19 01:58:00,36.1,8.4,29.06,WSW,251,0.0,0.0,31,0.00,,---,0.00,VWS V14.01,2013-10-19 06:58:00,
2013-10-19 02:01:00,36.1,8.4,29.06,SW,231,0.0,0.0,31,0.00,,---,0.00,VWS V14.01,2013-10-19 07:01:00,
2013-10-19 02:02:00,36.0,8.3,29.06,SW,231,0.0,0.0,31,0.00,,---,0.00,VWS V14.01,2013-10-19 07:02:00,
2013-10-19 02:03:00,36.1,8.4,29.06,SSW,196,0.0,0.0,31,0.00,,---,0.00,VWS V14.01,2013-10-19 07:03:00,
2013-10-19 02:06:00,36.0,8.3,29.06,WSW,254,2.2,2.2,31,0.00,,---,0.00,VWS V14.01,2013-10-19 07:06:00,
2013-10-19 02:07:00,36.0,8.3,29.06,SSW,197,0.0,0.0,31,0.00,,---,0.00,VWS V14.01,2013-10-19 07:07:00,
2013-10-19 02:08:00,36.0,8.3,29.06,WSW,247,3.6,3.6,31,0.00,,---,0.00,VWS V14.01,2013-10-19 07:08:00,
2013-10-19 02:11:00,36.0,8.3,29.06,SW,230,0.0,0.0,31,0.00,,---,0.00,VWS V14.01,2013-10-19 07:11:00,
2013-10-19 02:12:00,36.0,8.3,29.06,SW,230,0.0,0.0,31,0.00,,---,0.00,VWS V14.01,2013-10-19 07:12:00,
2013-10-19 02:13:00,36.0,8.3,29.06,SW,230,0.0,0.0,31,0.00,,---,0.00,VWS V14.01,2013-10-19 07:13:00,
2013-10-19 02:14:00,36.0,8.3,29.06,SW,230,0.0,0.0,31,0.00,,---,0.00,VWS V14.01,2013-10-19 07:14:00,
2013-10-19 02:16:00,36.0,8.3,29.06,SSE,148,0.0,0.0,31,0.00,,---,0.00,VWS V14.01,2013-10-19 07:16:00,
2013-10-19 02:17:00,36.0,8.3,29.06,SSE,148,0.0,0.0,31,0.00,,---,0.00,VWS V14.01,2013-10-19 07:17:00,
2013-10-19 02:18:00,36.0,8.3,29.06,SSE,148,0.0,0.0,31,0.00,,---,0.00,VWS V14.01,2013-10-19 07:18:00,
2013-10-19 02:19:00,36.0,8.3,29.06,SSE,163,0.0,0.0,31,0.00,,---,0.00,VWS V14.01,2013-10-19 07:19:00,
2013-10-19 02:21:00,36.0,8.3,29.06,South,191,0.0,0.0,31,0.00,,---,0.00,VWS V14.01,2013-10-19 07:21:00,
2013-10-19 02:22:00,36.0,8.3,29.06,South,191,0.0,0.0,31,0.00,,---,0.00,VWS V14.01,2013-10-19 07:22:00,
2013-10-19 02:23:00,36.0,8.3,29.06,South,189,0.0,0.0,31,0.00,,---,0.00,VWS V14.01,2013-10-19 07:23:00,
2013-10-19 02:24:00,36.0,8.3,29.06,South,189,0.0,0.0,31,0.00,,---,0.00,VWS V14.01,2013-10-19 07:24:00,
2013-10-19 02:26:00,36.0,8.3,29.06,SSE,159,0.0,0.0,31,0.00,,---,0.00,VWS V14.01,2013-10-19 07:26:00,
2013-10-19 02:27:00,36.0,8.3,29.06,SSE,156,0.0,2.2,31,0.00,,---,0.00,VWS V14.01,2013-10-19 07:27:00,
2013-10-19 02:28:00,36.0,8.3,29.06,SSE,157,0.0,2.2,31,0.00,,---,0.00,VWS V14.01,2013-10-19 07:28:00,
2013-10-19 02:29:00,35.8,8.1,29.06,WSW,240,0.0,4.0,31,0.00,,---,0.00,VWS V14.01,2013-10-19 07:29:00,
2013-10-19 02:31:00,35.8,8.1,29.06,WSW,241,0.0,0.0,31,0.00,,---,0.00,VWS V14.01,2013-10-19 07:31:00,
2013-10-19 02:32:00,35.8,8.1,29.06,WSW,241,0.0,0.0,31,0.00,,---,0.00,VWS V14.01,2013-10-19 07:32:00,
2013-10-19 02:33:00,35.8,8.1,29.06,WSW,241,0.0,0.0,31,0.00,,---,0.00,VWS V14.01,2013-10-19 07:33:00,
2013-10-19 02:34:00,35.8,8.1,29.06,South,178,0.0,0.0,31,0.00,,---,0.00,VWS V14.01,2013-10-19 07:34:00,
2013-10-19 02:36:00,35.8,8.1,29.06,WNW,300,0.0,0.0,31,0.00,,---,0.00,VWS V14.01,2013-10-19 07:36:00,
2013-10-19 02:37:00,35.8,8.1,29.06,WNW,300,0.0,0.0,31,0.00,,---,0.00,VWS V14.01,2013-10-19 07:37:00,
2013-10-19 02:38:00,35.8,8.1,29.06,WNW,300,0.0,0.0,31,0.00,,---,0.00,VWS V14.01,2013-10-19 07:38:00,
2013-10-19 02:39:00,35.8,8.1,29.06,SSW,204,0.0,0.0,31,0.00,,---,0.00,VWS V14.01,2013-10-19 07:39:00,
2013-10-19 02:41:00,35.8,8.1,29.06,West,260,0.0,0.0,31,0.00,,---,0.00,VWS V14.01,2013-10-19 07:41:00,
2013-10-19 02:42:00,35.8,8.1,29.06,West,260,0.0,0.0,31,0.00,,---,0.00,VWS V14.01,2013-10-19 07:42:00,
2013-10-19 02:43:00,35.8,8.1,29.06,West,260,0.0,0.0,31,0.00,,---,0.00,VWS V14.01,2013-10-19 07:43:00,
2013-10-19 02:44:00,35.8,8.1,29.06,West,260,0.0,0.0,31,0.00,,---,0.00,VWS V14.01,2013-10-19 07:44:00,
2013-10-19 02:46:00,35.6,8.0,29.06,NNW,334,0.0,0.0,31,0.00,,---,0.00,VWS V14.01,2013-10-19 07:46:00,
2013-10-19 02:48:00,35.6,8.0,29.06,NNW,328,0.0,0.0,31,0.00,,---,0.00,VWS V14.01,2013-10-19 07:48:00,
2013-10-19 02:49:00,35.6,8.0,29.06,South,191,0.0,0.0,31,0.00,,---,0.00,VWS V14.01,2013-10-19 07:49:00,
2013-10-19 02:51:00,35.4,7.8,29.06,South,183,0.0,0.0,31,0.00,,---,0.00,VWS V14.01,2013-10-19 07:51:00,
2013-10-19 02:53:00,35.4,7.8,29.06,South,177,0.0,0.0,31,0.00,,---,0.00,VWS V14.01,2013-10-19 07:53:00,
2013-10-19 02:54:00,35.4,7.8,29.06,SE,138,2.2,3.1,31,0.00,,---,0.00,VWS V14.01,2013-10-19 07:54:00,
2013-10-19 02:55:00,35.4,7.8,29.06,SE,137,0.0,2.2,31,0.00,,---,0.00,VWS V14.01,2013-10-19 07:55:00,
2013-10-19 02:56:00,35.4,7.8,29.06,SSE,159,0.0,0.0,31,0.00,,---,0.00,VWS V14.01,2013-10-19 07:56:00,
2013-10-19 02:58:00,35.4,7.8,29.06,SSE,159,0.0,0.0,31,0.00,,---,0.00,VWS V14.01,2013-10-19 07:58:00,
2013-10-19 02:59:00,35.4,7.8,29.06,SSE,159,0.0,0.0,31,0.00,,---,0.00,VWS V14.01,2013-10-19 07:59:00,
2013-10-19 03:00:00,35.4,7.8,29.06,SSE,159,0.0,0.0,31,0.00,,---,0.00,VWS V14.01,2013-10-19 08:00:00,
2013-10-19 03:01:00,35.4,7.8,29.06,SSE,158,0.0,0.0,31,0.00,,---,0.00,VWS V14.01,2013-10-19 08:01:00,
2013-10-19 03:03:00,35.2,7.7,29.06,SSE,159,0.0,0.0,31,0.00,,---,0.00,VWS V14.01,2013-10-19 08:03:00,
2013-10-19 03:04:00,35.2,7.7,29.06,WSW,258,0.0,0.0,31,0.00,,---,0.00,VWS V14.01,2013-10-19 08:04:00,
2013-10-19 03:05:00,35.2,7.7,29.06,WSW,258,0.0,0.0,31,0.00,,---,0.00,VWS V14.01,2013-10-19 08:05:00,
2013-10-19 03:06:00,35.2,7.7,29.06,South,179,0.0,0.0,31,0.00,,---,0.00,VWS V14.01,2013-10-19 08:06:00,
2013-10-19 03:08:00,35.2,7.7,29.06,SSW,202,0.0,0.0,31,0.00,,---,0.00,VWS V14.01,2013-10-19 08:08:00,
2013-10-19 03:09:00,35.2,7.7,29.06,SSW,202,0.0,0.0,31,0.00,,---,0.00,VWS V14.01,2013-10-19 08:09:00,
2013-10-19 03:10:00,35.2,7.7,29.06,South,174,0.0,0.0,31,0.00,,---,0.00,VWS V14.01,2013-10-19 08:10:00,
2013-10-19 03:12:00,35.2,7.7,29.06,West,275,0.0,0.0,31,0.00,,---,0.00,VWS V14.01,2013-10-19 08:12:00,
2013-10-19 03:13:00,35.2,7.7,29.06,SSW,208,0.0,0.0,31,0.00,,---,0.00,VWS V14.01,2013-10-19 08:13:00,
2013-10-19 03:14:00,35.2,7.7,29.06,SSW,208,0.0,0.0,31,0.00,,---,0.00,VWS V14.01,2013-10-19 08:14:00,
2013-10-19 03:15:00,35.2,7.7,29.06,SSW,208,0.0,0.0,31,0.00,,---,0.00,VWS V14.01,2013-10-19 08:15:00,
2013-10-19 03:16:00,35.2,7.7,29.06,SSW,208,0.0,0.0,31,0.00,,---,0.00,VWS V14.01,2013-10-19 08:16:00,
2013-10-19 03:17:00,35.2,7.7,29.06,SSW,208,0.0,0.0,31,0.00,,---,0.00,VWS V14.01,2013-10-19 08:17:00,
2013-10-19 03:18:00,35.2,7.7,29.06,SSW,206,0.0,0.0,31,0.00,,---,0.00,VWS V14.01,2013-10-19 08:18:00,
2013-10-19 03:19:00,35.2,7.7,29.06,SSW,206,0.0,0.0,31,0.00,,---,0.00,VWS V14.01,2013-10-19 08:19:00,
2013-10-19 03:20:00,35.2,7.7,29.06,SSW,206,0.0,0.0,31,0.00,,---,0.00,VWS V14.01,2013-10-19 08:20:00,
2013-10-19 03:21:00,35.2,7.7,29.06,SSW,206,0.0,0.0,31,0.00,,---,0.00,VWS V14.01,2013-10-19 08:21:00,
2013-10-19 03:22:00,35.2,7.7,29.06,SSW,206,0.0,0.0,31,0.00,,---,0.00,VWS V14.01,2013-10-19 08:22:00,
2013-10-19 03:24:00,35.2,7.7,29.06,SSW,206,0.0,0.0,31,0.00,,---,0.00,VWS V14.01,2013-10-19 08:24:00,
2013-10-19 03:25:00,35.2,7.7,29.06,SSW,206,0.0,0.0,31,0.00,,---,0.00,VWS V14.01,2013-10-19 08:25:00,
2013-10-19 03:26:00,35.2,7.7,29.06,SSW,206,0.0,0.0,31,0.00,,---,0.00,VWS V14.01,2013-10-19 08:26:00,
2013-10-19 03:27:00,35.2,7.7,29.06,SSW,206,0.0,0.0,31,0.00,,---,0.00,VWS V14.01,2013-10-19 08:27:00,
2013-10-19 03:29:00,35.2,7.7,29.06,WSW,243,0.0,0.0,31,0.00,,---,0.00,VWS V14.01,2013-10-19 08:29:00,
2013-10-19 03:30:00,35.2,7.7,29.06,WSW,243,0.0,0.0,31,0.00,,---,0.00,VWS V14.01,2013-10-19 08:30:00,
2013-10-19 03:31:00,35.2,7.7,29.06,WSW,243,0.0,0.0,31,0.00,,---,0.00,VWS V14.01,2013-10-19 08:31:00,
2013-10-19 03:32:00,35.2,7.7,29.06,South,187,0.0,0.0,31,0.00,,---,0.00,VWS V14.01,2013-10-19 08:32:00,
2013-10-19 03:34:00,35.2,7.7,29.06,South,187,0.0,0.0,31,0.00,,---,0.00,VWS V14.01,2013-10-19 08:34:00,
2013-10-19 03:35:00,35.2,7.7,29.06,SW,224,3.1,4.0,31,0.00,,---,0.00,VWS V14.01,2013-10-19 08:35:00,
2013-10-19 03:37:00,35.2,7.7,29.06,West,268,0.0,0.0,31,0.00,,---,0.00,VWS V14.01,2013-10-19 08:37:00,
2013-10-19 03:39:00,35.2,7.7,29.06,SE,125,0.0,0.0,31,0.00,,---,0.00,VWS V14.01,2013-10-19 08:39:00,
2013-10-19 03:40:00,35.2,7.7,29.06,SE,125,0.0,0.0,31,0.00,,---,0.00,VWS V14.01,2013-10-19 08:40:00,
2013-10-19 03:42:00,35.2,7.7,29.06,SSE,150,0.0,0.0,31,0.00,,---,0.00,VWS V14.01,2013-10-19 08:42:00,
2013-10-19 03:44:00,35.2,7.7,29.06,SSE,150,0.0,0.0,31,0.00,,---,0.00,VWS V14.01,2013-10-19 08:44:00,
2013-10-19 03:45:00,35.2,7.7,29.06,SSE,157,0.0,0.0,31,0.00,,---,0.00,VWS V14.01,2013-10-19 08:45:00,
2013-10-19 03:47:00,35.2,7.7,29.06,West,268,0.0,0.0,31,0.00,,---,0.00,VWS V14.01,2013-10-19 08:47:00,
2013-10-19 03:49:00,35.2,7.7,29.06,West,268,0.0,0.0,31,0.00,,---,0.00,VWS V14.01,2013-10-19 08:49:00,
2013-10-19 03:50:00,35.2,7.7,29.06,West,268,0.0,0.0,31,0.00,,---,0.00,VWS V14.01,2013-10-19 08:50:00,
2013-10-19 03:52:00,35.2,7.7,29.06,West,268,0.0,0.0,31,0.00,,---,0.00,VWS V14.01,2013-10-19 08:52:00,
2013-10-19 03:55:00,35.2,7.7,29.03,West,271,0.0,0.0,31,0.00,,---,0.00,VWS V14.01,2013-10-19 08:55:00,
2013-10-19 03:56:00,35.2,7.7,29.03,West,271,0.0,0.0,31,0.00,,---,0.00,VWS V14.01,2013-10-19 08:56:00,
2013-10-19 03:57:00,35.2,7.7,29.03,SSW,209,0.0,0.0,31,0.00,,---,0.00,VWS V14.01,2013-10-19 08:57:00,
2013-10-19 04:00:00,35.2,7.7,29.03,SW,220,0.0,0.0,31,0.00,,---,0.00,VWS V14.01,2013-10-19 09:00:00,
2013-10-19 04:01:00,35.2,7.7,29.03,SW,220,0.0,0.0,31,0.00,,---,0.00,VWS V14.01,2013-10-19 09:01:00,
2013-10-19 04:03:00,35.2,7.7,29.03,West,269,2.7,2.7,31,0.00,,---,0.00,VWS V14.01,2013-10-19 09:03:00,
2013-10-19 04:05:00,35.2,7.7,29.03,West,269,0.0,0.0,31,0.00,,---,0.00,VWS V14.01,2013-10-19 09:05:00,
2013-10-19 04:06:00,35.2,7.7,29.03,West,269,0.0,0.0,31,0.00,,---,0.00,VWS V14.01,2013-10-19 09:06:00,
2013-10-19 04:08:00,35.2,7.7,29.03,SW,222,0.0,3.1,31,0.00,,---,0.00,VWS V14.01,2013-10-19 09:08:00,
2013-10-19 04:10:00,35.4,7.8,29.03,SW,225,0.0,0.0,31,0.00,,---,0.00,VWS V14.01,2013-10-19 09:10:00,
2013-10-19 04:11:00,35.4,7.8,29.03,SW,225,0.0,0.0,31,0.00,,---,0.00,VWS V14.01,2013-10-19 09:11:00,
2013-10-19 04:13:00,35.4,7.8,29.03,WSW,246,0.0,0.0,31,0.00,,---,0.00,VWS V14.01,2013-10-19 09:13:00,
2013-10-19 04:15:00,35.4,8.5,29.03,WSW,246,0.0,0.0,32,0.00,,---,0.00,VWS V14.01,2013-10-19 09:15:00,
2013-10-19 04:16:00,35.4,8.5,29.03,WSW,246,0.0,0.0,32,0.00,,---,0.00,VWS V14.01,2013-10-19 09:16:00,
2013-10-19 04:17:00,35.4,8.5,29.03,WSW,246,0.0,0.0,32,0.00,,---,0.00,VWS V14.01,2013-10-19 09:17:00,
2013-10-19 04:18:00,35.4,8.5,29.03,SSE,167,0.0,0.0,32,0.00,,---,0.00,VWS V14.01,2013-10-19 09:18:00,
2013-10-19 04:20:00,35.4,8.5,29.03,SSE,152,0.0,0.0,32,0.00,,---,0.00,VWS V14.01,2013-10-19 09:20:00,
2013-10-19 04:21:00,35.4,8.5,29.03,SSE,152,0.0,0.0,32,0.00,,---,0.00,VWS V14.01,2013-10-19 09:21:00,
2013-10-19 04:22:00,35.4,8.5,29.03,SSE,152,0.0,0.0,32,0.00,,---,0.00,VWS V14.01,2013-10-19 09:22:00,
2013-10-19 04:23:00,35.4,8.5,29.03,WNW,299,0.0,0.0,32,0.00,,---,0.00,VWS V14.01,2013-10-19 09:23:00,
2013-10-19 04:25:00,35.4,8.5,29.03,SW,216,0.0,0.0,32,0.00,,---,0.00,VWS V14.01,2013-10-19 09:25:00,
2013-10-19 04:26:00,35.4,8.5,29.03,SW,223,0.0,0.0,32,0.00,,---,0.00,VWS V14.01,2013-10-19 09:26:00,
2013-10-19 04:27:00,35.4,8.5,29.03,SW,223,0.0,0.0,32,0.00,,---,0.00,VWS V14.01,2013-10-19 09:27:00,
2013-10-19 04:28:00,35.4,8.5,29.03,SW,222,0.0,0.0,32,0.00,,---,0.00,VWS V14.01,2013-10-19 09:28:00,
2013-10-19 04:29:00,35.4,8.5,29.03,SW,222,0.0,0.0,32,0.00,,---,0.00,VWS V14.01,2013-10-19 09:29:00,
2013-10-19 04:30:00,35.4,8.5,29.03,WSW,241,0.0,0.0,32,0.00,,---,0.00,VWS V14.01,2013-10-19 09:30:00,
2013-10-19 04:31:00,35.4,8.5,29.03,WSW,241,0.0,0.0,32,0.00,,---,0.00,VWS V14.01,2013-10-19 09:31:00,
2013-10-19 04:32:00,35.4,8.5,29.03,WSW,241,0.0,0.0,32,0.00,,---,0.00,VWS V14.01,2013-10-19 09:32:00,
2013-10-19 04:34:00,35.4,8.5,29.03,WSW,241,0.0,0.0,32,0.00,,---,0.00,VWS V14.01,2013-10-19 09:34:00,
2013-10-19 04:36:00,35.4,8.5,29.03,North,353,0.0,0.0,32,0.00,,---,0.00,VWS V14.01,2013-10-19 09:36:00,
2013-10-19 04:37:00,35.4,8.5,29.03,North,11,0.0,0.0,32,0.00,,---,0.00,VWS V14.01,2013-10-19 09:37:00,
2013-10-19 04:39:00,35.4,8.5,29.03,SSW,205,0.0,0.0,32,0.00,,---,0.00,VWS V14.01,2013-10-19 09:39:00,
2013-10-19 04:41:00,35.6,8.0,29.03,SSW,204,0.0,0.0,31,0.00,,---,0.00,VWS V14.01,2013-10-19 09:41:00,
2013-10-19 04:42:00,35.6,8.0,29.03,SSW,204,0.0,0.0,31,0.00,,---,0.00,VWS V14.01,2013-10-19 09:42:00,
2013-10-19 04:43:00,35.6,8.0,29.03,West,271,0.0,0.0,31,0.00,,---,0.00,VWS V14.01,2013-10-19 09:43:00,
2013-10-19 04:44:00,35.6,8.0,29.03,SSE,167,0.0,0.0,31,0.00,,---,0.00,VWS V14.01,2013-10-19 09:44:00,
2013-10-19 04:46:00,35.6,8.0,29.03,South,175,0.0,0.0,31,0.00,,---,0.00,VWS V14.01,2013-10-19 09:46:00,
2013-10-19 04:48:00,35.6,8.0,29.03,South,175,0.0,0.0,31,0.00,,---,0.00,VWS V14.01,2013-10-19 09:48:00,
2013-10-19 04:49:00,35.6,8.0,29.03,West,277,3.6,3.6,31,0.00,,---,0.00,VWS V14.01,2013-10-19 09:49:00,
2013-10-19 04:51:00,35.6,8.0,29.03,SE,146,0.0,3.6,31,0.00,,---,0.00,VWS V14.01,2013-10-19 09:51:00,
2013-10-19 04:53:00,35.6,8.0,29.03,West,274,0.0,0.0,31,0.00,,---,0.00,VWS V14.01,2013-10-19 09:53:00,
2013-10-19 04:54:00,35.6,8.0,29.03,West,274,0.0,0.0,31,0.00,,---,0.00,VWS V14.01,2013-10-19 09:54:00,
2013-10-19 04:56:00,35.6,8.0,29.03,SSE,168,0.0,0.0,31,0.00,,---,0.00,VWS V14.01,2013-10-19 09:56:00,
2013-10-19 04:58:00,35.6,8.0,29.03,SSE,168,0.0,0.0,31,0.00,,---,0.00,VWS V14.01,2013-10-19 09:58:00,
2013-10-19 04:59:00,35.6,8.0,29.03,SSE,168,0.0,0.0,31,0.00,,---,0.00,VWS V14.01,2013-10-19 09:59:00,
2013-10-19 05:00:00,35.6,8.0,29.03,SSE,168,0.0,0.0,31,0.00,,---,0.00,VWS V14.01,2013-10-19 10:00:00,
2013-10-19 05:01:00,35.6,8.0,29.03,SSE,166,0.0,0.0,31,0.00,,---,0.00,VWS V14.01,2013-10-19 10:01:00,
2013-10-19 05:03:00,35.6,8.0,29.03,SSE,166,0.0,0.0,31,0.00,,---,0.00,VWS V14.01,2013-10-19 10:03:00,
2013-10-19 05:04:00,35.6,8.0,29.03,SSE,166,0.0,0.0,31,0.00,,---,0.00,VWS V14.01,2013-10-19 10:04:00,
2013-10-19 05:05:00,35.6,8.0,29.03,SSE,166,0.0,0.0,31,0.00,,---,0.00,VWS V14.01,2013-10-19 10:05:00,
2013-10-19 05:06:00,35.6,8.0,29.03,SW,229,3.6,3.6,31,0.00,,---,0.00,VWS V14.01,2013-10-19 10:06:00,
2013-10-19 05:09:00,35.6,8.0,29.03,SE,146,0.0,0.0,31,0.00,,---,0.00,VWS V14.01,2013-10-19 10:09:00,
2013-10-19 05:10:00,35.6,8.0,29.03,SE,146,0.0,0.0,31,0.00,,---,0.00,VWS V14.01,2013-10-19 10:10:00,
2013-10-19 05:11:00,35.6,8.0,29.03,SSE,167,0.0,0.0,31,0.00,,---,0.00,VWS V14.01,2013-10-19 10:11:00,
2013-10-19 05:12:00,35.6,8.0,29.03,SSE,167,0.0,0.0,31,0.00,,---,0.00,VWS V14.01,2013-10-19 10:12:00,
2013-10-19 05:14:00,35.6,8.0,29.03,SSE,167,0.0,0.0,31,0.00,,---,0.00,VWS V14.01,2013-10-19 10:14:00,
2013-10-19 05:15:00,35.6,8.0,29.03,SSE,167,0.0,0.0,31,0.00,,---,0.00,VWS V14.01,2013-10-19 10:15:00,
2013-10-19 05:17:00,35.6,8.0,29.03,SSE,167,0.0,0.0,31,0.00,,---,0.00,VWS V14.01,2013-10-19 10:17:00,
2013-10-19 05:19:00,35.6,8.0,29.03,South,170,0.0,0.0,31,0.00,,---,0.00,VWS V14.01,2013-10-19 10:19:00,
2013-10-19 05:20:00,35.6,8.0,29.03,West,263,0.0,0.0,31,0.00,,---,0.00,VWS V14.01,2013-10-19 10:20:00,
2013-10-19 05:22:00,35.6,8.0,29.03,SSW,209,0.0,0.0,31,0.00,,---,0.00,VWS V14.01,2013-10-19 10:22:00,
2013-10-19 05:24:00,35.6,8.0,29.03,South,174,0.0,3.6,31,0.00,,---,0.00,VWS V14.01,2013-10-19 10:24:00,
2013-10-19 05:25:00,35.6,8.0,29.03,South,174,0.0,3.6,31,0.00,,---,0.00,VWS V14.01,2013-10-19 10:25:00,
2013-10-19 05:27:00,35.6,8.0,29.03,South,176,0.0,0.0,31,0.00,,---,0.00,VWS V14.01,2013-10-19 10:27:00,
2013-10-19 05:29:00,35.6,8.0,29.03,SSW,207,0.0,0.0,31,0.00,,---,0.00,VWS V14.01,2013-10-19 10:29:00,
2013-10-19 05:30:00,35.6,8.0,29.03,SSW,207,0.0,0.0,31,0.00,,---,0.00,VWS V14.01,2013-10-19 10:30:00,
2013-10-19 05:32:00,35.6,8.0,29.03,SSW,201,0.0,0.0,31,0.00,,---,0.00,VWS V14.01,2013-10-19 10:32:00,
2013-10-19 05:35:00,35.6,8.0,29.03,SSW,196,0.0,0.0,31,0.00,,---,0.00,VWS V14.01,2013-10-19 10:35:00,
2013-10-19 05:37:00,35.6,8.0,29.03,SSE,162,0.0,2.2,31,0.00,,---,0.00,VWS V14.01,2013-10-19 10:37:00,
2013-10-19 05:40:00,35.6,8.0,29.03,South,171,0.0,0.0,31,0.00,,---,0.00,VWS V14.01,2013-10-19 10:40:00,
2013-10-19 05:41:00,35.6,8.0,29.03,SSE,148,2.7,2.7,31,0.00,,---,0.00,VWS V14.01,2013-10-19 10:41:00,
2013-10-19 05:42:00,35.6,8.0,29.03,South,179,0.0,0.0,31,0.00,,---,0.00,VWS V14.01,2013-10-19 10:42:00,
2013-10-19 05:45:00,35.6,8.0,29.03,South,179,0.0,0.0,31,0.00,,---,0.00,VWS V14.01,2013-10-19 10:45:00,
2013-10-19 05:46:00,35.6,8.0,29.03,South,179,0.0,0.0,31,0.00,,---,0.00,VWS V14.01,2013-10-19 10:46:00,
2013-10-19 05:47:00,35.6,8.0,29.03,South,179,0.0,0.0,31,0.00,,---,0.00,VWS V14.01,2013-10-19 10:47:00,
2013-10-19 05:50:00,35.6,8.0,29.03,South,175,0.0,0.0,31,0.00,,---,0.00,VWS V14.01,2013-10-19 10:50:00,
2013-10-19 05:51:00,35.6,8.0,29.03,South,175,0.0,0.0,31,0.00,,---,0.00,VWS V14.01,2013-10-19 10:51:00,
2013-10-19 05:52:00,35.6,8.0,29.03,South,175,0.0,0.0,31,0.00,,---,0.00,VWS V14.01,2013-10-19 10:52:00,
2013-10-19 05:55:00,35.6,8.0,29.03,SSE,162,0.0,0.0,31,0.00,,---,0.00,VWS V14.01,2013-10-19 10:55:00,
2013-10-19 05:56:00,35.6,8.0,29.03,SSE,162,0.0,0.0,31,0.00,,---,0.00,VWS V14.01,2013-10-19 10:56:00,
2013-10-19 05:57:00,35.6,8.0,29.03,SSE,162,0.0,0.0,31,0.00,,---,0.00,VWS V14.01,2013-10-19 10:57:00,
2013-10-19 06:00:00,35.4,8.5,29.03,SSW,197,0.0,0.0,32,0.00,,---,0.00,VWS V14.01,2013-10-19 11:00:00,
2013-10-19 06:01:00,35.4,8.5,29.03,SSW,197,0.0,0.0,32,0.00,,---,0.00,VWS V14.01,2013-10-19 11:01:00,
2013-10-19 06:02:00,35.4,8.5,29.03,SW,224,0.0,0.0,32,0.00,,---,0.00,VWS V14.01,2013-10-19 11:02:00,
2013-10-19 06:05:00,35.4,8.5,29.03,WNW,297,0.0,0.0,32,0.00,,---,0.00,VWS V14.01,2013-10-19 11:05:00,
2013-10-19 06:06:00,35.4,8.5,29.03,WNW,297,0.0,0.0,32,0.00,,---,0.00,VWS V14.01,2013-10-19 11:06:00,
2013-10-19 06:07:00,35.4,8.5,29.03,East,81,0.0,0.0,32,0.00,,---,0.00,VWS V14.01,2013-10-19 11:07:00,
2013-10-19 06:08:00,35.6,8.0,29.03,South,172,0.0,0.0,31,0.00,,---,0.00,VWS V14.01,2013-10-19 11:08:00,
2013-10-19 06:11:00,35.6,8.0,29.03,South,172,0.0,0.0,31,0.00,,---,0.00,VWS V14.01,2013-10-19 11:11:00,
2013-10-19 06:12:00,35.4,8.5,29.03,SSE,166,3.6,3.6,32,0.00,,---,0.00,VWS V14.01,2013-10-19 11:12:00,
2013-10-19 06:13:00,35.6,8.0,29.03,SSE,166,0.0,0.0,31,0.00,,---,0.00,VWS V14.01,2013-10-19 11:13:00,
2013-10-19 06:16:00,35.6,8.0,29.03,South,170,0.0,2.2,31,0.00,,---,0.00,VWS V14.01,2013-10-19 11:16:00,
2013-10-19 06:17:00,35.6,8.0,29.03,South,170,0.0,0.0,31,0.00,,---,0.00,VWS V14.01,2013-10-19 11:17:00,
2013-10-19 06:18:00,35.6,8.0,29.03,South,170,0.0,0.0,31,0.00,,---,0.00,VWS V14.01,2013-10-19 11:18:00,
2013-10-19 06:21:00,35.6,8.0,29.03,South,170,0.0,0.0,31,0.00,,---,0.00,VWS V14.01,2013-10-19 11:21:00,
2013-10-19 06:22:00,35.4,8.5,29.03,South,170,0.0,0.0,32,0.00,,---,0.00,VWS V14.01,2013-10-19 11:22:00,
2013-10-19 06:23:00,35.4,8.5,29.03,South,170,0.0,0.0,32,0.00,,---,0.00,VWS V14.01,2013-10-19 11:23:00,
2013-10-19 06:26:00,35.4,8.5,29.03,South,174,0.0,0.0,32,0.00,,---,0.00,VWS V14.01,2013-10-19 11:26:00,
2013-10-19 06:28:00,35.4,8.5,29.03,South,175,0.0,2.7,32,0.00,,---,0.00,VWS V14.01,2013-10-19 11:28:00,
2013-10-19 06:31:00,35.4,8.5,29.03,South,175,0.0,0.0,32,0.00,,---,0.00,VWS V14.01,2013-10-19 11:31:00,
2013-10-19 06:32:00,35.4,8.5,29.03,South,174,0.0,0.0,32,0.00,,---,0.00,VWS V14.01,2013-10-19 11:32:00,
2013-10-19 06:33:00,35.4,8.5,29.03,South,175,0.0,0.0,32,0.00,,---,0.00,VWS V14.01,2013-10-19 11:33:00,
2013-10-19 06:34:00,35.4,8.5,29.03,South,174,0.0,0.0,32,0.00,,---,0.00,VWS V14.01,2013-10-19 11:34:00,
2013-10-19 06:37:00,35.4,8.5,29.03,South,175,0.0,0.0,32,0.00,,---,0.00,VWS V14.01,2013-10-19 11:37:00,
2013-10-19 06:38:00,35.4,8.5,29.03,South,175,0.0,0.0,32,0.00,,---,0.00,VWS V14.01,2013-10-19 11:38:00,
2013-10-19 06:39:00,35.4,8.5,29.03,South,175,0.0,0.0,32,0.00,,---,0.00,VWS V14.01,2013-10-19 11:39:00,
2013-10-19 06:42:00,35.4,8.5,29.03,South,175,0.0,0.0,32,0.00,,---,0.00,VWS V14.01,2013-10-19 11:42:00,
2013-10-19 06:43:00,35.4,8.5,29.03,South,175,0.0,0.0,32,0.00,,---,0.00,VWS V14.01,2013-10-19 11:43:00,
2013-10-19 06:44:00,35.2,8.4,29.03,South,175,0.0,0.0,32,0.00,,---,0.00,VWS V14.01,2013-10-19 11:44:00,
2013-10-19 06:47:00,35.2,8.4,29.03,South,174,0.0,0.0,32,0.00,,---,0.00,VWS V14.01,2013-10-19 11:47:00,
2013-10-19 06:48:00,35.2,8.4,29.03,South,181,2.7,2.7,32,0.00,,---,0.00,VWS V14.01,2013-10-19 11:48:00,
2013-10-19 06:49:00,35.2,8.4,29.03,South,173,0.0,0.0,32,0.00,,---,0.00,VWS V14.01,2013-10-19 11:49:00,
2013-10-19 06:53:00,35.2,8.4,29.03,South,173,0.0,0.0,32,0.00,,---,0.00,VWS V14.01,2013-10-19 11:53:00,
2013-10-19 06:55:00,35.2,8.4,29.03,South,173,0.0,0.0,32,0.00,,---,0.00,VWS V14.01,2013-10-19 11:55:00,
2013-10-19 06:58:00,35.2,8.4,29.03,South,173,0.0,0.0,32,0.00,,---,0.00,VWS V14.01,2013-10-19 11:58:00,
2013-10-19 06:59:00,35.1,8.2,29.03,South,173,0.0,0.0,32,0.00,,---,0.00,VWS V14.01,2013-10-19 11:59:00,
2013-10-19 07:00:00,35.1,8.2,29.03,South,173,0.0,0.0,32,0.00,,---,0.00,VWS V14.01,2013-10-19 12:00:00,
2013-10-19 07:03:00,35.1,8.2,29.03,South,175,0.0,0.0,32,0.00,,---,0.00,VWS V14.01,2013-10-19 12:03:00,
2013-10-19 07:04:00,35.1,8.2,29.03,South,175,0.0,0.0,32,0.00,,---,0.00,VWS V14.01,2013-10-19 12:04:00,
2013-10-19 07:05:00,35.1,8.2,29.03,South,175,0.0,0.0,32,0.00,,---,0.00,VWS V14.01,2013-10-19 12:05:00,
2013-10-19 07:09:00,35.1,8.2,29.03,South,175,0.0,0.0,32,0.00,,---,0.00,VWS V14.01,2013-10-19 12:09:00,
2013-10-19 07:10:00,35.1,8.2,29.03,South,175,0.0,0.0,32,0.00,,---,0.00,VWS V14.01,2013-10-19 12:10:00,
2013-10-19 07:14:00,35.1,8.2,29.03,South,179,0.0,0.0,32,0.00,,---,0.00,VWS V14.01,2013-10-19 12:14:00,
2013-10-19 07:15:00,35.1,8.2,29.03,South,178,0.0,0.0,32,0.00,,---,0.00,VWS V14.01,2013-10-19 12:15:00,
2013-10-19 07:19:00,35.1,8.2,29.03,South,178,0.0,0.0,32,0.00,,---,0.00,VWS V14.01,2013-10-19 12:19:00,
2013-10-19 07:20:00,35.1,8.2,29.03,South,178,0.0,0.0,32,0.00,,---,0.00,VWS V14.01,2013-10-19 12:20:00,
2013-10-19 07:21:00,35.1,8.2,29.03,SSW,212,0.0,0.0,32,0.00,,---,0.00,VWS V14.01,2013-10-19 12:21:00,
2013-10-19 07:24:00,35.1,8.2,29.03,SSW,212,0.0,0.0,32,0.00,,---,0.00,VWS V14.01,2013-10-19 12:24:00,
2013-10-19 07:25:00,34.9,8.0,29.03,SSW,212,0.0,0.0,32,0.00,,---,0.00,VWS V14.01,2013-10-19 12:25:00,
2013-10-19 07:26:00,34.9,8.0,29.03,SSW,212,0.0,0.0,32,0.00,,---,0.00,VWS V14.01,2013-10-19 12:26:00,
2013-10-19 07:29:00,34.9,8.0,29.03,SSE,167,0.0,0.0,32,0.00,,---,0.00,VWS V14.01,2013-10-19 12:29:00,
2013-10-19 07:30:00,34.9,8.0,29.03,SSE,167,0.0,0.0,32,0.00,,---,0.00,VWS V14.01,2013-10-19 12:30:00,
2013-10-19 07:31:00,34.9,8.0,29.03,SSE,167,0.0,0.0,32,0.00,,---,0.00,VWS V14.01,2013-10-19 12:31:00,
2013-10-19 07:32:00,34.9,8.0,29.03,SSE,167,0.0,0.0,32,0.00,,---,0.00,VWS V14.01,2013-10-19 12:32:00,
2013-10-19 07:34:00,34.9,8.0,29.03,SSE,166,0.0,0.0,32,0.00,,---,0.00,VWS V14.01,2013-10-19 12:34:00,
2013-10-19 07:35:00,34.9,8.0,29.03,South,173,0.0,0.0,32,0.00,,---,0.00,VWS V14.01,2013-10-19 12:35:00,
2013-10-19 07:36:00,34.9,8.0,29.03,SW,225,0.0,0.0,32,0.00,,---,0.00,VWS V14.01,2013-10-19 12:36:00,
2013-10-19 07:37:00,34.9,8.0,29.03,SW,225,0.0,0.0,32,0.00,,---,0.00,VWS V14.01,2013-10-19 12:37:00,
2013-10-19 07:39:00,34.9,8.0,29.03,SW,220,0.0,0.0,32,0.00,,---,0.00,VWS V14.01,2013-10-19 12:39:00,
2013-10-19 07:40:00,34.9,8.0,29.03,SW,220,0.0,0.0,32,0.00,,---,0.00,VWS V14.01,2013-10-19 12:40:00,
2013-10-19 07:41:00,34.9,8.0,29.03,South,172,0.0,0.0,32,0.00,,---,0.00,VWS V14.01,2013-10-19 12:41:00,
2013-10-19 07:42:00,34.9,8.0,29.03,SW,216,0.0,0.0,32,0.00,,---,0.00,VWS V14.01,2013-10-19 12:42:00,
2013-10-19 07:44:00,34.9,8.0,29.03,SW,222,0.0,2.7,32,0.00,,---,0.00,VWS V14.01,2013-10-19 12:44:00,
2013-10-19 07:45:00,34.9,8.0,29.03,SSW,209,0.0,0.0,32,0.00,,---,0.00,VWS V14.01,2013-10-19 12:45:00,
2013-10-19 07:46:00,34.9,8.0,29.03,SSE,154,0.0,0.0,32,0.00,,---,0.00,VWS V14.01,2013-10-19 12:46:00,
2013-10-19 07:47:00,34.9,8.0,29.03,SSE,154,0.0,0.0,32,0.00,,---,0.00,VWS V14.01,2013-10-19 12:47:00,
2013-10-19 07:49:00,34.9,8.0,29.03,SSE,168,0.0,3.1,32,0.00,,---,0.00,VWS V14.01,2013-10-19 12:49:00,
2013-10-19 07:50:00,34.9,8.0,29.03,SSE,168,0.0,3.1,32,0.00,,---,0.00,VWS V14.01,2013-10-19 12:50:00,
2013-10-19 07:51:00,34.9,8.0,29.03,SSE,168,0.0,0.0,32,0.00,,---,0.00,VWS V14.01,2013-10-19 12:51:00,
2013-10-19 07:52:00,34.9,8.0,29.03,SSW,213,3.6,3.6,32,0.00,,---,0.00,VWS V14.01,2013-10-19 12:52:00,
2013-10-19 07:55:00,34.9,8.0,29.00,South,191,0.0,3.1,32,0.00,,---,0.00,VWS V14.01,2013-10-19 12:55:00,
2013-10-19 07:56:00,34.9,8.0,29.00,South,191,0.0,0.0,32,0.00,,---,0.00,VWS V14.01,2013-10-19 12:56:00,
2013-10-19 07:57:00,34.9,8.0,29.00,SSW,213,2.2,3.6,32,0.00,,---,0.00,VWS V14.01,2013-10-19 12:57:00,
2013-10-19 08:00:00,34.9,8.0,29.00,SSE,168,0.0,0.0,32,0.00,,---,0.00,VWS V14.01,2013-10-19 13:00:00,
2013-10-19 08:01:00,34.9,8.0,29.00,SW,215,0.0,0.0,32,0.00,,---,0.00,VWS V14.01,2013-10-19 13:01:00,
2013-10-19 08:02:00,34.9,8.0,29.00,SSE,150,2.2,2.2,32,0.00,,---,0.00,VWS V14.01,2013-10-19 13:02:00,
2013-10-19 08:05:00,34.9,8.0,29.00,SW,235,0.0,0.0,32,0.00,,---,0.00,VWS V14.01,2013-10-19 13:05:00,
2013-10-19 08:06:00,34.9,8.0,29.00,SE,129,0.0,0.0,32,0.00,,---,0.00,VWS V14.01,2013-10-19 13:06:00,
2013-10-19 08:07:00,34.9,8.0,29.00,SW,214,0.0,0.0,32,0.00,,---,0.00,VWS V14.01,2013-10-19 13:07:00,
2013-10-19 08:10:00,34.9,8.0,29.03,SW,219,0.0,0.0,32,0.00,,---,0.00,VWS V14.01,2013-10-19 13:10:00,
2013-10-19 08:11:00,34.9,8.0,29.03,SSW,196,0.0,0.0,32,0.00,,---,0.00,VWS V14.01,2013-10-19 13:11:00,
2013-10-19 08:12:00,34.9,8.0,29.03,SSW,196,0.0,0.0,32,0.00,,---,0.00,VWS V14.01,2013-10-19 13:12:00,
2013-10-19 08:13:00,34.9,8.0,29.03,SSW,196,0.0,0.0,32,0.00,,---,0.00,VWS V14.01,2013-10-19 13:13:00,
2013-10-19 08:15:00,34.9,8.0,29.03,South,187,0.0,0.0,32,0.00,,---,0.00,VWS V14.01,2013-10-19 13:15:00,
2013-10-19 08:16:00,34.9,8.0,29.03,WNW,295,0.0,0.0,32,0.00,,---,0.00,VWS V14.01,2013-10-19 13:16:00,
2013-10-19 08:18:00,34.9,8.0,29.03,East,91,0.0,2.2,32,0.00,,---,0.00,VWS V14.01,2013-10-19 13:18:00,
2013-10-19 08:20:00,34.9,8.0,29.03,East,101,0.0,0.0,32,0.00,,---,0.00,VWS V14.01,2013-10-19 13:20:00,
2013-10-19 08:21:00,34.9,8.0,29.03,East,101,0.0,0.0,32,0.00,,---,0.00,VWS V14.01,2013-10-19 13:21:00,
2013-10-19 08:23:00,34.9,8.0,29.03,East,101,0.0,0.0,32,0.00,,---,0.00,VWS V14.01,2013-10-19 13:23:00,
2013-10-19 08:26:00,35.1,8.2,29.03,South,181,4.0,4.0,32,0.00,,---,0.00,VWS V14.01,2013-10-19 13:26:00,
2013-10-19 08:27:00,35.1,8.2,29.03,South,188,0.0,4.0,32,0.00,,---,0.00,VWS V14.01,2013-10-19 13:27:00,
2013-10-19 08:28:00,35.1,8.2,29.03,South,189,0.0,0.0,32,0.00,,---,0.00,VWS V14.01,2013-10-19 13:28:00,
2013-10-19 08:31:00,35.1,8.2,29.03,South,189,0.0,0.0,32,0.00,,---,0.00,VWS V14.01,2013-10-19 13:31:00,
2013-10-19 08:32:00,35.1,8.2,29.03,South,189,0.0,0.0,32,0.00,,---,0.00,VWS V14.01,2013-10-19 13:32:00,
2013-10-19 08:33:00,35.1,8.2,29.03,South,189,0.0,0.0,32,0.00,,---,0.00,VWS V14.01,2013-10-19 13:33:00,
2013-10-19 08:36:00,35.1,8.2,29.03,WNW,294,0.0,0.0,32,0.00,,---,0.00,VWS V14.01,2013-10-19 13:36:00,
2013-10-19 08:37:00,35.1,8.2,29.03,WNW,292,0.0,0.0,32,0.00,,---,0.00,VWS V14.01,2013-10-19 13:37:00,
2013-10-19 08:38:00,35.1,8.2,29.03,SW,223,0.0,4.9,32,0.00,,---,0.00,VWS V14.01,2013-10-19 13:38:00,
2013-10-19 08:41:00,35.2,8.4,29.03,SW,223,0.0,0.0,32,0.00,,---,0.00,VWS V14.01,2013-10-19 13:41:00,
2013-10-19 08:42:00,35.2,8.4,29.03,South,173,0.0,0.0,32,0.00,,---,0.00,VWS V14.01,2013-10-19 13:42:00,
2013-10-19 08:43:00,35.2,8.4,29.03,SSE,157,0.0,0.0,32,0.00,,---,0.00,VWS V14.01,2013-10-19 13:43:00,
2013-10-19 08:44:00,35.2,8.4,29.03,SSW,203,0.0,0.0,32,0.00,,---,0.00,VWS V14.01,2013-10-19 13:44:00,
2013-10-19 08:46:00,35.2,8.4,29.03,SSW,206,3.1,3.1,32,0.00,,---,0.00,VWS V14.01,2013-10-19 13:46:00,
2013-10-19 08:47:00,35.4,8.5,29.03,SSE,151,0.0,3.1,32,0.00,,---,0.00,VWS V14.01,2013-10-19 13:47:00,
2013-10-19 08:48:00,35.4,8.5,29.03,WSW,256,0.0,3.1,32,0.00,,---,0.00,VWS V14.01,2013-10-19 13:48:00,
2013-10-19 08:50:00,35.4,8.5,29.03,West,279,0.0,0.0,32,0.00,,---,0.00,VWS V14.01,2013-10-19 13:50:00,
2013-10-19 08:51:00,35.4,8.5,29.03,WSW,255,0.0,0.0,32,0.00,,---,0.00,VWS V14.01,2013-10-19 13:51:00,
2013-10-19 08:52:00,35.4,8.5,29.03,South,169,0.0,0.0,32,0.00,,---,0.00,VWS V14.01,2013-10-19 13:52:00,
2013-10-19 08:53:00,35.4,8.5,29.03,SSE,164,0.0,0.0,32,0.00,,---,0.00,VWS V14.01,2013-10-19 13:53:00,
2013-10-19 08:55:00,35.6,8.7,29.03,SSW,196,0.0,2.2,32,0.00,,---,0.00,VWS V14.01,2013-10-19 13:55:00,
2013-10-19 08:56:00,35.6,8.7,29.03,SSE,163,4.0,4.0,32,0.00,,---,0.00,VWS V14.01,2013-10-19 13:56:00,
2013-10-19 08:57:00,35.6,8.7,29.03,SSE,163,0.0,4.0,32,0.00,,---,0.00,VWS V14.01,2013-10-19 13:57:00,
2013-10-19 08:58:00,35.6,8.7,29.03,SSE,157,0.0,0.0,32,0.00,,---,0.00,VWS V14.01,2013-10-19 13:58:00,
2013-10-19 09:00:00,35.6,8.7,29.03,SSW,203,0.0,0.0,32,0.00,,---,0.00,VWS V14.01,2013-10-19 14:00:00,
2013-10-19 09:01:00,35.8,8.8,29.03,SSW,203,0.0,0.0,32,0.00,,---,0.00,VWS V14.01,2013-10-19 14:01:00,
2013-10-19 09:02:00,35.8,8.8,29.03,SSE,153,0.0,0.0,32,0.00,,---,0.00,VWS V14.01,2013-10-19 14:02:00,
2013-10-19 09:03:00,35.8,8.8,29.03,SSW,193,0.0,2.7,32,0.00,,---,0.00,VWS V14.01,2013-10-19 14:03:00,
2013-10-19 09:04:00,35.8,8.8,29.03,SW,231,2.2,2.7,32,0.00,,---,0.00,VWS V14.01,2013-10-19 14:04:00,
2013-10-19 09:05:00,35.8,8.8,29.03,SE,141,0.0,0.0,32,0.00,,---,0.00,VWS V14.01,2013-10-19 14:05:00,
2013-10-19 09:07:00,35.8,8.8,29.03,SSE,160,3.1,3.6,32,0.00,,---,0.00,VWS V14.01,2013-10-19 14:07:00,
2013-10-19 09:08:00,36.0,9.0,29.03,SE,139,0.0,3.1,32,0.00,,---,0.00,VWS V14.01,2013-10-19 14:08:00,
2013-10-19 09:09:00,36.0,9.0,29.03,SSE,163,0.0,0.0,32,0.00,,---,0.00,VWS V14.01,2013-10-19 14:09:00,
2013-10-19 09:10:00,36.1,9.1,29.03,SSE,163,0.0,0.0,32,0.00,,---,0.00,VWS V14.01,2013-10-19 14:10:00,
2013-10-19 09:12:00,36.1,9.1,29.03,WNW,282,2.7,3.6,32,0.00,,---,0.00,VWS V14.01,2013-10-19 14:12:00,
2013-10-19 09:13:00,36.1,9.1,29.03,SSW,210,0.0,0.0,32,0.00,,---,0.00,VWS V14.01,2013-10-19 14:13:00,
2013-10-19 09:14:00,36.1,9.1,29.03,SSW,198,0.0,2.7,32,0.00,,---,0.00,VWS V14.01,2013-10-19 14:14:00,
2013-10-19 09:15:00,36.3,9.3,29.03,West,268,2.2,2.2,32,0.00,,---,0.00,VWS V14.01,2013-10-19 14:15:00,
2013-10-19 09:17:00,36.3,9.3,29.03,West,271,0.0,0.0,32,0.00,,---,0.00,VWS V14.01,2013-10-19 14:17:00,
2013-10-19 09:18:00,36.3,9.3,29.03,SE,125,0.0,3.1,32,0.00,,---,0.00,VWS V14.01,2013-10-19 14:18:00,
2013-10-19 09:19:00,36.3,9.3,29.03,South,188,0.0,0.0,32,0.00,,---,0.00,VWS V14.01,2013-10-19 14:19:00,
2013-10-19 09:20:00,36.3,9.3,29.03,South,170,4.9,4.9,32,0.00,,---,0.00,VWS V14.01,2013-10-19 14:20:00,
2013-10-19 09:22:00,36.5,9.5,29.03,South,187,0.0,0.0,32,0.00,,---,0.00,VWS V14.01,2013-10-19 14:22:00,
2013-10-19 09:23:00,36.5,9.5,29.03,SE,138,0.0,2.7,32,0.00,,---,0.00,VWS V14.01,2013-10-19 14:23:00,
2013-10-19 09:24:00,36.7,9.6,29.03,South,184,2.2,3.1,32,0.00,,---,0.00,VWS V14.01,2013-10-19 14:24:00,
2013-10-19 09:25:00,36.7,9.6,29.03,South,181,0.0,0.0,32,0.00,,---,0.00,VWS V14.01,2013-10-19 14:25:00,
2013-10-19 09:27:00,36.7,10.3,29.03,SSW,202,0.0,4.9,33,0.00,,---,0.00,VWS V14.01,2013-10-19 14:27:00,
2013-10-19 09:28:00,36.9,10.5,29.03,South,189,2.7,2.7,33,0.00,,---,0.00,VWS V14.01,2013-10-19 14:28:00,
2013-10-19 09:29:00,36.9,10.5,29.03,SSE,168,2.2,2.2,33,0.00,,---,0.00,VWS V14.01,2013-10-19 14:29:00,
2013-10-19 09:30:00,36.9,10.5,29.03,SW,218,3.6,3.6,33,0.00,,---,0.00,VWS V14.01,2013-10-19 14:30:00,
2013-10-19 09:32:00,36.9,10.5,29.03,SSE,150,0.0,0.0,33,0.00,,---,0.00,VWS V14.01,2013-10-19 14:32:00,
2013-10-19 09:33:00,37.0,10.6,29.03,SSE,153,0.0,0.0,33,0.00,,---,0.00,VWS V14.01,2013-10-19 14:33:00,
2013-10-19 09:34:00,37.0,10.6,29.03,SSW,202,2.2,2.2,33,0.00,,---,0.00,VWS V14.01,2013-10-19 14:34:00,
2013-10-19 09:35:00,37.0,10.6,29.03,WSW,256,0.0,2.7,33,0.00,,---,0.00,VWS V14.01,2013-10-19 14:35:00,
2013-10-19 09:37:00,37.2,10.8,29.03,SSW,204,0.0,0.0,33,0.00,,---,0.00,VWS V14.01,2013-10-19 14:37:00,
2013-10-19 09:38:00,37.4,10.2,29.03,SSW,197,0.0,4.0,32,0.00,,---,0.00,VWS V14.01,2013-10-19 14:38:00,
2013-10-19 09:39:00,37.4,10.2,29.03,SSW,197,0.0,0.0,32,0.00,,---,0.00,VWS V14.01,2013-10-19 14:39:00,
2013-10-19 09:40:00,37.6,10.4,29.03,WSW,252,0.0,0.0,32,0.00,,---,0.00,VWS V14.01,2013-10-19 14:40:00,
2013-10-19 09:42:00,37.8,11.3,29.03,SSW,196,0.0,0.0,33,0.00,,---,0.00,VWS V14.01,2013-10-19 14:42:00,
2013-10-19 09:43:00,37.8,11.3,29.03,SSW,196,0.0,0.0,33,0.00,,---,0.00,VWS V14.01,2013-10-19 14:43:00,
2013-10-19 09:44:00,37.9,11.4,29.03,SSW,196,0.0,0.0,33,0.00,,---,0.00,VWS V14.01,2013-10-19 14:44:00,
2013-10-19 09:45:00,38.1,11.6,29.03,SSW,196,0.0,0.0,33,0.00,,---,0.00,VWS V14.01,2013-10-19 14:45:00,
2013-10-19 09:46:00,38.3,11.7,29.03,SSW,196,0.0,0.0,33,0.00,,---,0.00,VWS V14.01,2013-10-19 14:46:00,
2013-10-19 09:47:00,38.5,11.9,29.03,WSW,241,0.0,2.2,33,0.00,,---,0.00,VWS V14.01,2013-10-19 14:47:00,
2013-10-19 09:48:00,38.7,12.1,29.03,SSE,163,4.9,4.9,33,0.00,,---,0.00,VWS V14.01,2013-10-19 14:48:00,
2013-10-19 09:49:00,38.8,12.2,29.03,SSW,209,0.0,2.2,33,0.00,,---,0.00,VWS V14.01,2013-10-19 14:49:00,
2013-10-19 09:51:00,39.2,12.5,29.03,SW,227,0.0,0.0,33,0.00,,---,0.00,VWS V14.01,2013-10-19 14:51:00,
2013-10-19 09:52:00,39.4,12.7,29.03,SW,227,0.0,0.0,33,0.00,,---,0.00,VWS V14.01,2013-10-19 14:52:00,
2013-10-19 09:53:00,39.4,12.7,29.03,SSE,168,2.2,2.2,33,0.00,,---,0.00,VWS V14.01,2013-10-19 14:53:00,
2013-10-19 09:54:00,39.7,13.0,29.03,East,100,0.0,0.0,33,0.00,,---,0.00,VWS V14.01,2013-10-19 14:54:00,
2013-10-19 09:56:00,40.1,13.3,29.03,SW,233,0.0,0.0,33,0.00,,---,0.00,VWS V14.01,2013-10-19 14:56:00,
2013-10-19 09:57:00,40.1,13.3,29.03,West,275,0.0,3.6,33,0.00,,---,0.00,VWS V14.01,2013-10-19 14:57:00,
2013-10-19 09:58:00,40.3,13.5,29.03,West,275,2.2,2.2,33,0.00,,---,0.00,VWS V14.01,2013-10-19 14:58:00,
2013-10-19 09:59:00,40.3,13.5,29.03,South,175,0.0,0.0,33,0.00,,---,0.00,VWS V14.01,2013-10-19 14:59:00,
2013-10-19 10:01:00,40.6,13.8,29.03,SSW,210,0.0,0.0,33,0.00,,---,0.00,VWS V14.01,2013-10-19 15:01:00,
2013-10-19 10:02:00,40.6,13.8,29.03,South,189,0.0,0.0,33,0.00,,---,0.00,VWS V14.01,2013-10-19 15:02:00,
2013-10-19 10:03:00,41.0,13.4,29.03,SSE,152,0.0,3.1,32,0.00,,---,0.00,VWS V14.01,2013-10-19 15:03:00,
2013-10-19 10:04:00,41.2,13.6,29.03,WNW,285,0.0,0.0,32,0.00,,---,0.00,VWS V14.01,2013-10-19 15:04:00,
2013-10-19 10:06:00,41.5,13.9,29.03,SSW,211,0.0,0.0,32,0.00,,---,0.00,VWS V14.01,2013-10-19 15:06:00,
2013-10-19 10:07:00,41.5,13.9,29.03,SW,222,0.0,0.0,32,0.00,,---,0.00,VWS V14.01,2013-10-19 15:07:00,
2013-10-19 10:08:00,41.7,14.1,29.03,South,180,0.0,0.0,32,0.00,,---,0.00,VWS V14.01,2013-10-19 15:08:00,
2013-10-19 10:09:00,41.9,14.2,29.03,SSE,156,0.0,3.1,32,0.00,,---,0.00,VWS V14.01,2013-10-19 15:09:00,
2013-10-19 10:11:00,42.3,14.5,29.03,SSE,163,0.0,0.0,32,0.00,,---,0.00,VWS V14.01,2013-10-19 15:11:00,
2013-10-19 10:12:00,42.4,14.7,29.03,SSE,163,0.0,0.0,32,0.00,,---,0.00,VWS V14.01,2013-10-19 15:12:00,
2013-10-19 10:13:00,42.4,14.7,29.03,SSE,163,0.0,0.0,32,0.00,,---,0.00,VWS V14.01,2013-10-19 15:13:00,
2013-10-19 10:14:00,42.6,14.8,29.03,SSE,163,0.0,0.0,32,0.00,,---,0.00,VWS V14.01,2013-10-19 15:14:00,
2013-10-19 10:15:00,42.8,14.3,29.03,SSE,163,0.0,0.0,31,0.00,,---,0.00,VWS V14.01,2013-10-19 15:15:00,
2013-10-19 10:16:00,43.0,14.4,29.03,SW,217,0.0,0.0,31,0.00,,---,0.00,VWS V14.01,2013-10-19 15:16:00,
2013-10-19 10:17:00,43.0,14.4,29.03,SSW,212,0.0,0.0,31,0.00,,---,0.00,VWS V14.01,2013-10-19 15:17:00,
2013-10-19 10:18:00,43.0,14.4,29.03,South,189,3.1,3.1,31,0.00,,---,0.00,VWS V14.01,2013-10-19 15:18:00,
2013-10-19 10:19:00,43.3,14.8,29.03,SSE,163,0.0,3.6,31,0.00,,---,0.00,VWS V14.01,2013-10-19 15:19:00,
2013-10-19 10:20:00,43.3,14.8,29.03,SSE,163,0.0,0.0,31,0.00,,---,0.00,VWS V14.01,2013-10-19 15:20:00,
2013-10-19 10:21:00,43.5,14.9,29.03,SW,218,0.0,0.0,31,0.00,,---,0.00,VWS V14.01,2013-10-19 15:21:00,
2013-10-19 10:22:00,43.7,15.1,29.03,SW,218,0.0,0.0,31,0.00,,---,0.00,VWS V14.01,2013-10-19 15:22:00,
2013-10-19 10:23:00,43.7,15.1,29.03,SW,230,0.0,0.0,31,0.00,,---,0.00,VWS V14.01,2013-10-19 15:23:00,
2013-10-19 10:24:00,43.9,15.2,29.03,SSW,202,0.0,0.0,31,0.00,,---,0.00,VWS V14.01,2013-10-19 15:24:00,
2013-10-19 10:25:00,43.9,15.2,29.03,SSW,202,0.0,0.0,31,0.00,,---,0.00,VWS V14.01,2013-10-19 15:25:00,
2013-10-19 10:26:00,44.1,14.6,29.03,WSW,239,0.0,0.0,30,0.00,,---,0.00,VWS V14.01,2013-10-19 15:26:00,
2013-10-19 10:28:00,44.2,14.8,29.03,SW,224,3.1,3.1,30,0.00,,---,0.00,VWS V14.01,2013-10-19 15:28:00,
2013-10-19 10:29:00,44.4,14.9,29.03,South,169,2.7,3.6,30,0.00,,---,0.00,VWS V14.01,2013-10-19 15:29:00,
2013-10-19 10:30:00,44.4,14.9,29.03,SW,214,0.0,0.0,30,0.00,,---,0.00,VWS V14.01,2013-10-19 15:30:00,
2013-10-19 10:33:00,44.8,14.5,29.03,ESE,115,0.0,0.0,29,0.00,,---,0.00,VWS V14.01,2013-10-19 15:33:00,
2013-10-19 10:34:00,45.1,14.8,29.03,South,191,0.0,0.0,29,0.00,,---,0.00,VWS V14.01,2013-10-19 15:34:00,
2013-10-19 10:35:00,45.1,14.8,29.03,South,178,3.6,3.6,29,0.00,,---,0.00,VWS V14.01,2013-10-19 15:35:00,
2013-10-19 10:38:00,45.3,14.1,29.03,SSW,212,0.0,0.0,28,0.00,,---,0.00,VWS V14.01,2013-10-19 15:38:00,
2013-10-19 10:39:00,45.5,14.3,29.03,WNW,298,2.2,2.2,28,0.00,,---,0.00,VWS V14.01,2013-10-19 15:39:00,
2013-10-19 10:40:00,45.3,11.6,29.03,NNE,12,0.0,0.0,25,0.00,,---,0.00,VWS V14.01,2013-10-19 15:40:00,
2013-10-19 10:43:00,45.5,8.9,29.03,NNE,12,0.0,0.0,22,0.00,,---,0.00,VWS V14.01,2013-10-19 15:43:00,
2013-10-19 10:44:00,45.5,8.9,29.03,SSW,210,2.2,2.2,22,0.00,,---,0.00,VWS V14.01,2013-10-19 15:44:00,
2013-10-19 10:45:00,45.5,11.7,29.03,SSE,168,4.0,4.0,25,0.00,,---,0.00,VWS V14.01,2013-10-19 15:45:00,
2013-10-19 10:46:00,45.7,11.9,29.03,SSW,195,0.0,4.0,25,0.00,,---,0.00,VWS V14.01,2013-10-19 15:46:00,
2013-10-19 10:48:00,45.9,12.0,29.03,SSW,206,0.0,5.4,25,0.00,,---,0.00,VWS V14.01,2013-10-19 15:48:00,
2013-10-19 10:49:00,46.0,12.2,29.03,SSW,194,0.0,0.0,25,0.00,,---,0.00,VWS V14.01,2013-10-19 15:49:00,
2013-10-19 10:50:00,46.2,12.4,29.03,WSW,246,0.0,0.0,25,0.00,,---,0.00,VWS V14.01,2013-10-19 15:50:00,
2013-10-19 10:51:00,46.2,12.4,29.03,WSW,246,3.1,3.6,25,0.00,,---,0.00,VWS V14.01,2013-10-19 15:51:00,
2013-10-19 10:53:00,46.8,11.9,29.03,South,191,0.0,2.2,24,0.00,,---,0.00,VWS V14.01,2013-10-19 15:53:00,
2013-10-19 10:55:00,46.9,12.1,29.03,South,175,3.6,3.6,24,0.00,,---,0.00,VWS V14.01,2013-10-19 15:55:00,
2013-10-19 10:56:00,47.1,12.2,29.03,South,174,0.0,0.0,24,0.00,,---,0.00,VWS V14.01,2013-10-19 15:56:00,
2013-10-19 10:58:00,47.3,12.4,29.03,SW,226,0.0,0.0,24,0.00,,---,0.00,VWS V14.01,2013-10-19 15:58:00,
2013-10-19 11:00:00,47.5,12.5,29.03,South,186,0.0,3.1,24,0.00,,---,0.00,VWS V14.01,2013-10-19 16:00:00,
2013-10-19 11:01:00,47.7,10.7,29.03,SSW,194,0.0,0.0,22,0.00,,---,0.00,VWS V14.01,2013-10-19 16:01:00,
2013-10-19 11:03:00,47.5,7.3,29.03,SSE,152,2.7,3.1,19,0.00,,---,0.00,VWS V14.01,2013-10-19 16:03:00,
2013-10-19 11:04:00,47.5,7.3,29.03,SSE,150,0.0,3.1,19,0.00,,---,0.00,VWS V14.01,2013-10-19 16:04:00,
2013-10-19 11:05:00,47.7,7.4,29.03,SSE,165,0.0,0.0,19,0.00,,---,0.00,VWS V14.01,2013-10-19 16:05:00,
2013-10-19 11:06:00,47.7,7.4,29.03,ESE,114,0.0,0.0,19,0.00,,---,0.00,VWS V14.01,2013-10-19 16:06:00,
2013-10-19 11:07:00,47.8,7.6,29.03,SSW,193,2.7,2.7,19,0.00,,---,0.00,VWS V14.01,2013-10-19 16:07:00,
2013-10-19 11:08:00,48.0,7.7,29.03,South,177,0.0,0.0,19,0.00,,---,0.00,VWS V14.01,2013-10-19 16:08:00,
2013-10-19 11:09:00,48.0,7.7,29.03,WNW,292,0.0,2.2,19,0.00,,---,0.00,VWS V14.01,2013-10-19 16:09:00,
2013-10-19 11:10:00,48.0,7.7,29.03,WNW,292,0.0,0.0,19,0.00,,---,0.00,VWS V14.01,2013-10-19 16:10:00,
2013-10-19 11:11:00,48.0,7.7,29.03,West,278,2.7,2.7,19,0.00,,---,0.00,VWS V14.01,2013-10-19 16:11:00,
2013-10-19 11:12:00,48.0,7.7,29.03,West,278,0.0,0.0,19,0.00,,---,0.00,VWS V14.01,2013-10-19 16:12:00,
2013-10-19 11:13:00,48.0,7.7,29.03,West,278,0.0,0.0,19,0.00,,---,0.00,VWS V14.01,2013-10-19 16:13:00,
2013-10-19 11:15:00,48.2,7.9,29.03,South,172,0.0,0.0,19,0.00,,---,0.00,VWS V14.01,2013-10-19 16:15:00,
2013-10-19 11:16:00,48.2,7.9,29.03,South,172,0.0,0.0,19,0.00,,---,0.00,VWS V14.01,2013-10-19 16:16:00,
2013-10-19 11:17:00,48.4,8.0,29.03,SW,219,0.0,0.0,19,0.00,,---,0.00,VWS V14.01,2013-10-19 16:17:00,
2013-10-19 11:18:00,48.4,8.0,29.03,SSE,163,0.0,0.0,19,0.00,,---,0.00,VWS V14.01,2013-10-19 16:18:00,
2013-10-19 11:20:00,48.6,8.2,29.03,WSW,239,0.0,0.0,19,0.00,,---,0.00,VWS V14.01,2013-10-19 16:20:00,
2013-10-19 11:21:00,48.7,8.3,29.03,SSE,155,4.0,4.0,19,0.00,,---,0.00,VWS V14.01,2013-10-19 16:21:00,
2013-10-19 11:22:00,48.7,8.3,29.03,South,176,0.0,3.1,19,0.00,,---,0.00,VWS V14.01,2013-10-19 16:22:00,
2013-10-19 11:24:00,48.9,8.5,29.00,SSE,168,0.0,0.0,19,0.00,,---,0.00,VWS V14.01,2013-10-19 16:24:00,
2013-10-19 11:25:00,49.1,8.6,29.00,SSE,154,0.0,0.0,19,0.00,,---,0.00,VWS V14.01,2013-10-19 16:25:00,
2013-10-19 11:26:00,49.3,8.8,29.00,SSE,154,0.0,0.0,19,0.00,,---,0.00,VWS V14.01,2013-10-19 16:26:00,
2013-10-19 11:27:00,49.3,8.8,29.00,South,170,0.0,0.0,19,0.00,,---,0.00,VWS V14.01,2013-10-19 16:27:00,
2013-10-19 11:29:00,49.5,8.9,29.00,West,262,0.0,0.0,19,0.00,,---,0.00,VWS V14.01,2013-10-19 16:29:00,
2013-10-19 11:30:00,49.6,9.1,29.00,South,176,0.0,0.0,19,0.00,,---,0.00,VWS V14.01,2013-10-19 16:30:00,
2013-10-19 11:31:00,49.6,9.1,29.00,SW,223,0.0,0.0,19,0.00,,---,0.00,VWS V14.01,2013-10-19 16:31:00,
2013-10-19 11:32:00,49.8,9.2,29.00,West,270,3.6,3.6,19,0.00,,---,0.00,VWS V14.01,2013-10-19 16:32:00,
2013-10-19 11:34:00,50.0,9.4,29.00,WSW,247,0.0,0.0,19,0.00,,---,0.00,VWS V14.01,2013-10-19 16:34:00,
2013-10-19 11:35:00,50.0,9.4,29.00,SE,142,3.1,3.6,19,0.00,,---,0.00,VWS V14.01,2013-10-19 16:35:00,
2013-10-19 11:36:00,50.2,9.5,29.00,WSW,243,0.0,3.6,19,0.00,,---,0.00,VWS V14.01,2013-10-19 16:36:00,
2013-10-19 11:37:00,50.2,9.5,29.00,WSW,243,0.0,3.6,19,0.00,,---,0.00,VWS V14.01,2013-10-19 16:37:00,
2013-10-19 11:38:00,50.2,9.5,29.00,South,176,0.0,2.2,19,0.00,,---,0.00,VWS V14.01,2013-10-19 16:38:00,
2013-10-19 11:39:00,50.2,9.5,29.00,SW,214,0.0,0.0,19,0.00,,---,0.00,VWS V14.01,2013-10-19 16:39:00,
2013-10-19 11:40:00,50.2,9.5,29.00,SW,214,0.0,0.0,19,0.00,,---,0.00,VWS V14.01,2013-10-19 16:40:00,
2013-10-19 11:42:00,50.2,9.5,29.00,SW,217,4.9,4.9,19,0.00,,---,0.00,VWS V14.01,2013-10-19 16:42:00,
2013-10-19 11:43:00,50.4,9.7,29.00,SE,143,0.0,4.0,19,0.00,,---,0.00,VWS V14.01,2013-10-19 16:43:00,
2013-10-19 11:44:00,50.4,9.7,29.00,SE,143,0.0,0.0,19,0.00,,---,0.00,VWS V14.01,2013-10-19 16:44:00,
2013-10-19 11:45:00,50.5,9.8,29.00,NW,316,0.0,0.0,19,0.00,,---,0.00,VWS V14.01,2013-10-19 16:45:00,
2013-10-19 11:47:00,50.5,9.8,29.00,South,178,0.0,0.0,19,0.00,,---,0.00,VWS V14.01,2013-10-19 16:47:00,
2013-10-19 11:49:00,50.7,10.0,29.00,WSW,250,0.0,0.0,19,0.00,,---,0.00,VWS V14.01,2013-10-19 16:49:00,
2013-10-19 11:50:00,50.7,10.0,29.00,SSE,162,0.0,0.0,19,0.00,,---,0.00,VWS V14.01,2013-10-19 16:50:00,
2013-10-19 11:52:00,50.9,10.1,29.00,SE,141,0.0,0.0,19,0.00,,---,0.00,VWS V14.01,2013-10-19 16:52:00,
2013-10-19 11:53:00,50.9,10.1,29.00,SE,134,0.0,4.0,19,0.00,,---,0.00,VWS V14.01,2013-10-19 16:53:00,
2013-10-19 11:54:00,50.9,10.1,28.97,SE,141,2.7,6.3,19,0.00,,---,0.00,VWS V14.01,2013-10-19 16:54:00,
2013-10-19 11:56:00,51.1,10.3,28.97,SSE,151,0.0,5.4,19,0.00,,---,0.00,VWS V14.01,2013-10-19 16:56:00,
2013-10-19 11:57:00,51.3,10.4,28.97,SW,231,0.0,0.0,19,0.00,,---,0.00,VWS V14.01,2013-10-19 16:57:00,
2013-10-19 11:58:00,51.3,10.4,28.97,SE,136,0.0,3.1,19,0.00,,---,0.00,VWS V14.01,2013-10-19 16:58:00,
2013-10-19 11:59:00,51.3,10.4,28.97,SE,136,0.0,3.1,19,0.00,,---,0.00,VWS V14.01,2013-10-19 16:59:00,
2013-10-19 12:01:00,51.4,10.6,28.97,SSE,160,0.0,2.7,19,0.00,,---,0.00,VWS V14.01,2013-10-19 17:01:00,
2013-10-19 12:02:00,51.4,10.6,28.97,South,177,0.0,2.7,19,0.00,,---,0.00,VWS V14.01,2013-10-19 17:02:00,
2013-10-19 12:03:00,51.4,10.6,28.97,SSW,196,0.0,2.2,19,0.00,,---,0.00,VWS V14.01,2013-10-19 17:03:00,
2013-10-19 12:04:00,51.6,10.7,28.97,SSW,211,0.0,0.0,19,0.00,,---,0.00,VWS V14.01,2013-10-19 17:04:00,
2013-10-19 12:06:00,51.6,10.7,28.97,SSE,166,0.0,0.0,19,0.00,,---,0.00,VWS V14.01,2013-10-19 17:06:00,
2013-10-19 12:07:00,51.8,9.7,28.97,SW,231,0.0,3.6,18,0.00,,---,0.00,VWS V14.01,2013-10-19 17:07:00,
2013-10-19 12:08:00,51.8,9.7,29.00,SSW,198,0.0,0.0,18,0.00,,---,0.00,VWS V14.01,2013-10-19 17:08:00,
2013-10-19 12:09:00,52.0,9.8,29.00,SW,215,0.0,3.6,18,0.00,,---,0.00,VWS V14.01,2013-10-19 17:09:00,
2013-10-19 12:12:00,52.2,10.0,29.00,SE,137,0.0,0.0,18,0.00,,---,0.00,VWS V14.01,2013-10-19 17:12:00,
2013-10-19 12:13:00,52.2,10.0,29.00,WNW,285,0.0,0.0,18,0.00,,---,0.00,VWS V14.01,2013-10-19 17:13:00,
2013-10-19 12:14:00,52.2,10.0,29.00,WNW,292,0.0,3.6,18,0.00,,---,0.00,VWS V14.01,2013-10-19 17:14:00,
2013-10-19 12:15:00,52.3,10.1,29.00,SSE,152,3.1,3.6,18,0.00,,---,0.00,VWS V14.01,2013-10-19 17:15:00,
2013-10-19 12:17:00,52.3,10.1,29.00,SW,234,4.0,4.0,18,0.00,,---,0.00,VWS V14.01,2013-10-19 17:17:00,
2013-10-19 12:18:00,52.3,10.1,29.00,SW,215,0.0,4.0,18,0.00,,---,0.00,VWS V14.01,2013-10-19 17:18:00,
2013-10-19 12:19:00,52.5,10.2,29.00,SSW,205,2.7,2.7,18,0.00,,---,0.00,VWS V14.01,2013-10-19 17:19:00,
2013-10-19 12:20:00,52.5,10.2,29.00,South,173,5.4,5.4,18,0.00,,---,0.00,VWS V14.01,2013-10-19 17:20:00,
2013-10-19 12:22:00,52.9,10.6,29.00,South,174,3.6,3.6,18,0.00,,---,0.00,VWS V14.01,2013-10-19 17:22:00,
2013-10-19 12:23:00,52.9,10.6,29.00,SSW,193,2.7,2.7,18,0.00,,---,0.00,VWS V14.01,2013-10-19 17:23:00,
2013-10-19 12:24:00,52.9,10.6,29.00,SSW,193,0.0,2.7,18,0.00,,---,0.00,VWS V14.01,2013-10-19 17:24:00,
2013-10-19 12:25:00,53.1,10.7,29.00,SW,229,2.2,2.2,18,0.00,,---,0.00,VWS V14.01,2013-10-19 17:25:00,
2013-10-19 12:27:00,53.1,10.7,29.00,SW,219,0.0,0.0,18,0.00,,---,0.00,VWS V14.01,2013-10-19 17:27:00,
2013-10-19 12:28:00,53.1,10.7,29.00,SW,235,0.0,3.1,18,0.00,,---,0.00,VWS V14.01,2013-10-19 17:28:00,
2013-10-19 12:29:00,53.1,10.7,29.00,NW,321,2.2,3.1,18,0.00,,---,0.00,VWS V14.01,2013-10-19 17:29:00,
2013-10-19 12:30:00,53.2,10.9,29.00,WSW,250,5.4,5.4,18,0.00,,---,0.00,VWS V14.01,2013-10-19 17:30:00,
2013-10-19 12:32:00,53.4,11.0,29.00,SW,235,0.0,3.1,18,0.00,,---,0.00,VWS V14.01,2013-10-19 17:32:00,
2013-10-19 12:33:00,53.4,11.0,29.00,SSW,211,0.0,0.0,18,0.00,,---,0.00,VWS V14.01,2013-10-19 17:33:00,
2013-10-19 12:34:00,53.4,11.0,29.00,WSW,237,0.0,0.0,18,0.00,,---,0.00,VWS V14.01,2013-10-19 17:34:00,
2013-10-19 12:35:00,53.4,11.0,29.00,SW,216,3.1,3.1,18,0.00,,---,0.00,VWS V14.01,2013-10-19 17:35:00,
2013-10-19 12:37:00,53.8,11.3,29.00,South,175,2.2,3.1,18,0.00,,---,0.00,VWS V14.01,2013-10-19 17:37:00,
2013-10-19 12:38:00,53.8,11.3,28.97,SSE,168,0.0,2.7,18,0.00,,---,0.00,VWS V14.01,2013-10-19 17:38:00,
2013-10-19 12:39:00,53.8,11.3,28.97,SW,223,0.0,0.0,18,0.00,,---,0.00,VWS V14.01,2013-10-19 17:39:00,
2013-10-19 12:40:00,53.8,11.3,28.97,SW,233,0.0,0.0,18,0.00,,---,0.00,VWS V14.01,2013-10-19 17:40:00,
2013-10-19 12:43:00,54.0,11.4,28.97,South,173,3.1,3.1,18,0.00,,---,0.00,VWS V14.01,2013-10-19 17:43:00,
2013-10-19 12:44:00,54.1,11.6,28.97,SW,223,2.2,3.6,18,0.00,,---,0.00,VWS V14.01,2013-10-19 17:44:00,
2013-10-19 12:45:00,54.1,11.6,28.97,SW,223,0.0,0.0,18,0.00,,---,0.00,VWS V14.01,2013-10-19 17:45:00,
2013-10-19 12:48:00,54.3,11.7,28.97,SSW,203,0.0,3.6,18,0.00,,---,0.00,VWS V14.01,2013-10-19 17:48:00,
2013-10-19 12:49:00,54.5,11.9,28.97,SSE,156,0.0,0.0,18,0.00,,---,0.00,VWS V14.01,2013-10-19 17:49:00,
2013-10-19 12:50:00,54.5,11.9,28.97,SSW,209,0.0,0.0,18,0.00,,---,0.00,VWS V14.01,2013-10-19 17:50:00,
2013-10-19 12:53:00,54.7,12.0,28.97,South,181,0.0,2.2,18,0.00,,---,0.00,VWS V14.01,2013-10-19 17:53:00,
2013-10-19 12:54:00,54.9,12.2,28.97,South,169,2.2,2.7,18,0.00,,---,0.00,VWS V14.01,2013-10-19 17:54:00,
2013-10-19 12:55:00,54.9,12.2,28.97,South,169,0.0,0.0,18,0.00,,---,0.00,VWS V14.01,2013-10-19 17:55:00,
2013-10-19 12:56:00,55.0,12.3,28.97,SSW,198,0.0,0.0,18,0.00,,---,0.00,VWS V14.01,2013-10-19 17:56:00,
2013-10-19 12:58:00,55.0,12.3,28.97,West,262,0.0,2.2,18,0.00,,---,0.00,VWS V14.01,2013-10-19 17:58:00,
2013-10-19 12:59:00,55.2,12.5,28.97,SSW,209,5.4,5.4,18,0.00,,---,0.00,VWS V14.01,2013-10-19 17:59:00,
2013-10-19 13:00:00,55.2,12.5,28.97,SSW,209,5.4,5.4,18,0.00,,---,0.00,VWS V14.01,2013-10-19 18:00:00,
2013-10-19 13:01:00,55.2,12.5,28.97,SSE,164,0.0,2.7,18,0.00,,---,0.00,VWS V14.01,2013-10-19 18:01:00,
2013-10-19 13:02:00,55.2,12.5,28.97,WSW,240,2.2,2.2,18,0.00,,---,0.00,VWS V14.01,2013-10-19 18:02:00,
2013-10-19 13:03:00,55.4,11.3,28.97,South,182,0.0,0.0,17,0.00,,---,0.00,VWS V14.01,2013-10-19 18:03:00,
2013-10-19 13:04:00,55.4,11.3,28.97,WNW,294,2.7,7.2,17,0.00,,---,0.00,VWS V14.01,2013-10-19 18:04:00,
2013-10-19 13:05:00,55.6,11.5,28.97,NNE,18,2.7,2.7,17,0.00,,---,0.00,VWS V14.01,2013-10-19 18:05:00,
2013-10-19 13:06:00,55.6,11.5,28.97,North,353,2.7,2.7,17,0.00,,---,0.00,VWS V14.01,2013-10-19 18:06:00,
2013-10-19 13:07:00,55.6,11.5,28.97,SSW,208,0.0,0.0,17,0.00,,---,0.00,VWS V14.01,2013-10-19 18:07:00,
2013-10-19 13:08:00,55.6,11.5,28.97,South,171,0.0,0.0,17,0.00,,---,0.00,VWS V14.01,2013-10-19 18:08:00,
2013-10-19 13:10:00,55.8,11.6,28.97,South,184,0.0,0.0,17,0.00,,---,0.00,VWS V14.01,2013-10-19 18:10:00,
2013-10-19 13:11:00,55.8,11.6,28.97,North,357,2.2,2.2,17,0.00,,---,0.00,VWS V14.01,2013-10-19 18:11:00,
2013-10-19 13:12:00,55.8,11.6,28.97,West,274,0.0,0.0,17,0.00,,---,0.00,VWS V14.01,2013-10-19 18:12:00,
2013-10-19 13:13:00,55.9,11.8,28.97,SSE,161,2.2,3.1,17,0.00,,---,0.00,VWS V14.01,2013-10-19 18:13:00,
2013-10-19 13:15:00,55.9,11.8,28.97,SSW,208,0.0,3.6,17,0.00,,---,0.00,VWS V14.01,2013-10-19 18:15:00,
2013-10-19 13:16:00,55.9,11.8,28.97,NW,304,2.7,2.7,17,0.00,,---,0.00,VWS V14.01,2013-10-19 18:16:00,
2013-10-19 13:17:00,56.1,11.9,28.97,SW,221,4.0,4.0,17,0.00,,---,0.00,VWS V14.01,2013-10-19 18:17:00,
2013-10-19 13:19:00,56.1,11.9,28.97,SSE,166,0.0,4.0,17,0.00,,---,0.00,VWS V14.01,2013-10-19 18:19:00,
2013-10-19 13:20:00,56.1,11.9,28.97,SW,219,0.0,0.0,17,0.00,,---,0.00,VWS V14.01,2013-10-19 18:20:00,
2013-10-19 13:21:00,56.1,11.9,28.97,SSW,206,0.0,0.0,17,0.00,,---,0.00,VWS V14.01,2013-10-19 18:21:00,
2013-10-19 13:22:00,56.3,12.1,28.97,West,259,3.1,5.4,17,0.00,,---,0.00,VWS V14.01,2013-10-19 18:22:00,
2013-10-19 13:24:00,56.3,12.1,28.97,SSE,159,0.0,0.0,17,0.00,,---,0.00,VWS V14.01,2013-10-19 18:24:00,
2013-10-19 13:25:00,56.3,12.1,28.97,SW,222,0.0,0.0,17,0.00,,---,0.00,VWS V14.01,2013-10-19 18:25:00,
2013-10-19 13:26:00,56.3,12.1,28.97,South,174,0.0,0.0,17,0.00,,---,0.00,VWS V14.01,2013-10-19 18:26:00,
2013-10-19 13:27:00,56.5,12.2,28.97,SSE,163,0.0,0.0,17,0.00,,---,0.00,VWS V14.01,2013-10-19 18:27:00,
2013-10-19 13:29:00,56.7,12.4,28.97,SW,223,3.1,3.1,17,0.00,,---,0.00,VWS V14.01,2013-10-19 18:29:00,
2013-10-19 13:30:00,56.7,12.4,28.97,East,91,2.2,2.2,17,0.00,,---,0.00,VWS V14.01,2013-10-19 18:30:00,
2013-10-19 13:31:00,56.7,12.4,28.97,SSE,165,2.2,2.7,17,0.00,,---,0.00,VWS V14.01,2013-10-19 18:31:00,
2013-10-19 13:32:00,56.7,12.4,28.97,WSW,252,3.1,8.7,17,0.00,,---,0.00,VWS V14.01,2013-10-19 18:32:00,
2013-10-19 13:33:00,56.7,12.4,28.97,SW,229,0.0,3.1,17,0.00,,---,0.00,VWS V14.01,2013-10-19 18:33:00,
2013-10-19 13:34:00,56.7,12.4,28.97,SSE,165,0.0,3.6,17,0.00,,---,0.00,VWS V14.01,2013-10-19 18:34:00,
2013-10-19 13:35:00,56.8,12.5,28.97,West,274,0.0,2.2,17,0.00,,---,0.00,VWS V14.01,2013-10-19 18:35:00,
2013-10-19 13:36:00,56.8,12.5,28.97,SSW,201,2.7,2.7,17,0.00,,---,0.00,VWS V14.01,2013-10-19 18:36:00,
2013-10-19 13:37:00,56.8,12.5,28.97,South,184,0.0,2.7,17,0.00,,---,0.00,VWS V14.01,2013-10-19 18:37:00,
2013-10-19 13:38:00,56.8,12.5,28.97,SW,231,2.7,4.9,17,0.00,,---,0.00,VWS V14.01,2013-10-19 18:38:00,
2013-10-19 13:39:00,57.0,12.7,28.97,SSE,155,6.3,6.3,17,0.00,,---,0.00,VWS V14.01,2013-10-19 18:39:00,
2013-10-19 13:40:00,57.0,12.7,28.97,SE,139,2.2,5.4,17,0.00,,---,0.00,VWS V14.01,2013-10-19 18:40:00,
2013-10-19 13:41:00,57.0,12.7,28.97,SW,223,8.3,8.3,17,0.00,,---,0.00,VWS V14.01,2013-10-19 18:41:00,
2013-10-19 13:42:00,57.0,12.7,28.97,SE,138,4.0,4.0,17,0.00,,---,0.00,VWS V14.01,2013-10-19 18:42:00,
2013-10-19 13:43:00,57.0,12.7,28.97,SW,222,5.4,5.4,17,0.00,,---,0.00,VWS V14.01,2013-10-19 18:43:00,
2013-10-19 13:44:00,57.2,12.8,28.97,SE,137,0.0,2.7,17,0.00,,---,0.00,VWS V14.01,2013-10-19 18:44:00,
2013-10-19 13:45:00,57.2,12.8,28.97,SSE,165,2.2,3.1,17,0.00,,---,0.00,VWS V14.01,2013-10-19 18:45:00,
2013-10-19 13:46:00,57.2,12.8,28.97,NNE,26,0.0,4.9,17,0.00,,---,0.00,VWS V14.01,2013-10-19 18:46:00,
2013-10-19 13:47:00,57.2,12.8,28.97,SSE,155,3.6,3.6,17,0.00,,---,0.00,VWS V14.01,2013-10-19 18:47:00,
2013-10-19 13:48:00,57.2,12.8,28.97,WSW,247,5.8,5.8,17,0.00,,---,0.00,VWS V14.01,2013-10-19 18:48:00,
2013-10-19 13:49:00,57.2,12.8,28.97,SSW,210,2.2,3.6,17,0.00,,---,0.00,VWS V14.01,2013-10-19 18:49:00,
2013-10-19 13:51:00,57.4,12.9,28.97,SSW,197,2.2,8.3,17,0.00,,---,0.00,VWS V14.01,2013-10-19 18:51:00,
2013-10-19 13:52:00,57.4,12.9,28.97,SSE,158,0.0,2.7,17,0.00,,---,0.00,VWS V14.01,2013-10-19 18:52:00,
2013-10-19 13:53:00,57.4,12.9,28.97,SSE,160,0.0,0.0,17,0.00,,---,0.00,VWS V14.01,2013-10-19 18:53:00,
2013-10-19 13:54:00,57.4,12.9,28.97,SSW,213,3.6,3.6,17,0.00,,---,0.00,VWS V14.01,2013-10-19 18:54:00,
2013-10-19 13:56:00,57.4,12.9,28.97,West,271,3.1,3.1,17,0.00,,---,0.00,VWS V14.01,2013-10-19 18:56:00,
2013-10-19 13:57:00,57.4,12.9,28.97,WNW,299,2.7,2.7,17,0.00,,---,0.00,VWS V14.01,2013-10-19 18:57:00,
2013-10-19 13:58:00,57.6,13.1,28.97,SW,220,5.8,5.8,17,0.00,,---,0.00,VWS V14.01,2013-10-19 18:58:00,
2013-10-19 13:59:00,57.6,13.1,28.97,SSW,212,0.0,0.0,17,0.00,,---,0.00,VWS V14.01,2013-10-19 18:59:00,
2013-10-19 14:01:00,57.6,13.1,28.97,WSW,244,4.0,4.0,17,0.00,,---,0.00,VWS V14.01,2013-10-19 19:01:00,
2013-10-19 14:02:00,57.6,13.1,28.97,SSW,195,2.7,4.0,17,0.00,,---,0.00,VWS V14.01,2013-10-19 19:02:00,
2013-10-19 14:03:00,57.6,13.1,28.97,South,189,2.2,2.2,17,0.00,,---,0.00,VWS V14.01,2013-10-19 19:03:00,
2013-10-19 14:04:00,57.6,13.1,28.97,South,183,0.0,0.0,17,0.00,,---,0.00,VWS V14.01,2013-10-19 19:04:00,
2013-10-19 14:06:00,57.6,13.1,28.97,SSW,204,0.0,2.7,17,0.00,,---,0.00,VWS V14.01,2013-10-19 19:06:00,
2013-10-19 14:07:00,57.6,13.1,28.97,SSW,203,0.0,0.0,17,0.00,,---,0.00,VWS V14.01,2013-10-19 19:07:00,
2013-10-19 14:08:00,57.6,13.1,28.97,WNW,290,0.0,0.0,17,0.00,,---,0.00,VWS V14.01,2013-10-19 19:08:00,
2013-10-19 14:09:00,57.6,13.1,28.94,South,191,3.6,3.6,17,0.00,,---,0.00,VWS V14.01,2013-10-19 19:09:00,
2013-10-19 14:10:00,57.6,13.1,28.94,WSW,240,3.1,3.1,17,0.00,,---,0.00,VWS V14.01,2013-10-19 19:10:00,
2013-10-19 14:12:00,57.7,13.2,28.94,SSW,194,3.1,5.4,17,0.00,,---,0.00,VWS V14.01,2013-10-19 19:12:00,
2013-10-19 14:13:00,57.7,13.2,28.94,East,90,0.0,4.9,17,0.00,,---,0.00,VWS V14.01,2013-10-19 19:13:00,
2013-10-19 14:14:00,57.7,13.2,28.94,WNW,285,2.7,2.7,17,0.00,,---,0.00,VWS V14.01,2013-10-19 19:14:00,
2013-10-19 14:15:00,57.9,13.4,28.94,SSW,204,2.2,2.2,17,0.00,,---,0.00,VWS V14.01,2013-10-19 19:15:00,
2013-10-19 14:17:00,57.9,13.4,28.94,WSW,253,0.0,2.7,17,0.00,,---,0.00,VWS V14.01,2013-10-19 19:17:00,
2013-10-19 14:18:00,57.9,13.4,28.94,SE,146,0.0,0.0,17,0.00,,---,0.00,VWS V14.01,2013-10-19 19:18:00,
2013-10-19 14:20:00,57.9,13.4,28.94,West,275,2.7,4.9,17,0.00,,---,0.00,VWS V14.01,2013-10-19 19:20:00,
2013-10-19 14:22:00,58.1,13.5,28.94,SW,218,3.1,3.6,17,0.00,,---,0.00,VWS V14.01,2013-10-19 19:22:00,
2013-10-19 14:23:00,58.1,13.5,28.94,SW,230,2.7,4.0,17,0.00,,---,0.00,VWS V14.01,2013-10-19 19:23:00,
2013-10-19 14:25:00,58.1,13.5,28.94,SSW,210,2.2,5.4,17,0.00,,---,0.00,VWS V14.01,2013-10-19 19:25:00,
2013-10-19 14:27:00,58.3,13.7,28.94,SSE,158,3.1,3.1,17,0.00,,---,0.00,VWS V14.01,2013-10-19 19:27:00,
2013-10-19 14:28:00,58.3,13.7,28.94,SW,219,2.7,3.1,17,0.00,,---,0.00,VWS V14.01,2013-10-19 19:28:00,
2013-10-19 14:29:00,58.3,13.7,28.94,SW,235,4.9,4.9,17,0.00,,---,0.00,VWS V14.01,2013-10-19 19:29:00,
2013-10-19 14:30:00,58.3,13.7,28.94,NW,317,2.2,5.8,17,0.00,,---,0.00,VWS V14.01,2013-10-19 19:30:00,
2013-10-19 14:31:00,58.3,13.7,28.94,WSW,241,0.0,3.6,17,0.00,,---,0.00,VWS V14.01,2013-10-19 19:31:00,
2013-10-19 14:32:00,58.5,13.8,28.94,SSW,209,0.0,3.6,17,0.00,,---,0.00,VWS V14.01,2013-10-19 19:32:00,
2013-10-19 14:33:00,58.5,13.8,28.94,ESE,116,0.0,3.1,17,0.00,,---,0.00,VWS V14.01,2013-10-19 19:33:00,
2013-10-19 14:34:00,58.5,13.8,28.94,SSW,199,2.7,3.6,17,0.00,,---,0.00,VWS V14.01,2013-10-19 19:34:00,
2013-10-19 14:35:00,58.5,13.8,28.94,South,176,3.1,3.6,17,0.00,,---,0.00,VWS V14.01,2013-10-19 19:35:00,
2013-10-19 14:36:00,58.5,13.8,28.94,South,181,2.2,3.6,17,0.00,,---,0.00,VWS V14.01,2013-10-19 19:36:00,
2013-10-19 14:37:00,58.5,13.8,28.94,WSW,258,3.6,3.6,17,0.00,,---,0.00,VWS V14.01,2013-10-19 19:37:00,
2013-10-19 14:38:00,58.5,13.8,28.94,SW,227,2.2,2.7,17,0.00,,---,0.00,VWS V14.01,2013-10-19 19:38:00,
2013-10-19 14:39:00,58.5,13.8,28.94,SSW,210,2.7,3.6,17,0.00,,---,0.00,VWS V14.01,2013-10-19 19:39:00,
2013-10-19 14:40:00,58.5,13.8,28.94,SSW,210,2.7,3.6,17,0.00,,---,0.00,VWS V14.01,2013-10-19 19:40:00,
2013-10-19 14:41:00,58.5,13.8,28.94,South,178,2.7,3.1,17,0.00,,---,0.00,VWS V14.01,2013-10-19 19:41:00,
2013-10-19 14:42:00,58.5,13.8,28.94,SW,228,0.0,2.7,17,0.00,,---,0.00,VWS V14.01,2013-10-19 19:42:00,
2013-10-19 14:43:00,58.5,13.8,28.94,South,186,0.0,4.0,17,0.00,,---,0.00,VWS V14.01,2013-10-19 19:43:00,
2013-10-19 14:45:00,58.5,13.8,28.94,SSE,168,0.0,0.0,17,0.00,,---,0.00,VWS V14.01,2013-10-19 19:45:00,
2013-10-19 14:46:00,58.5,13.8,28.94,South,189,2.7,3.6,17,0.00,,---,0.00,VWS V14.01,2013-10-19 19:46:00,
2013-10-19 14:47:00,58.5,13.8,28.94,South,183,2.7,2.7,17,0.00,,---,0.00,VWS V14.01,2013-10-19 19:47:00,
2013-10-19 14:48:00,58.5,13.8,28.94,South,175,0.0,2.2,17,0.00,,---,0.00,VWS V14.01,2013-10-19 19:48:00,
2013-10-19 14:50:00,58.5,13.8,28.94,SSW,207,2.2,5.4,17,0.00,,---,0.00,VWS V14.01,2013-10-19 19:50:00,
2013-10-19 14:51:00,58.5,13.8,28.94,SSW,208,3.6,6.3,17,0.00,,---,0.00,VWS V14.01,2013-10-19 19:51:00,
2013-10-19 14:52:00,58.5,13.8,28.94,WSW,245,5.4,6.3,17,0.00,,---,0.00,VWS V14.01,2013-10-19 19:52:00,
2013-10-19 14:53:00,58.5,13.8,28.94,SE,140,3.6,5.4,17,0.00,,---,0.00,VWS V14.01,2013-10-19 19:53:00,
2013-10-19 14:55:00,58.5,13.8,28.94,SE,130,0.0,0.0,17,0.00,,---,0.00,VWS V14.01,2013-10-19 19:55:00,
2013-10-19 14:56:00,58.5,13.8,28.94,SW,233,2.7,2.7,17,0.00,,---,0.00,VWS V14.01,2013-10-19 19:56:00,
2013-10-19 14:57:00,58.5,13.8,28.94,SSW,208,2.2,2.2,17,0.00,,---,0.00,VWS V14.01,2013-10-19 19:57:00,
2013-10-19 14:58:00,58.5,13.8,28.94,SSW,211,0.0,5.4,17,0.00,,---,0.00,VWS V14.01,2013-10-19 19:58:00,
2013-10-19 15:00:00,58.5,13.8,28.94,WSW,243,4.5,4.5,17,0.00,,---,0.00,VWS V14.01,2013-10-19 20:00:00,
2013-10-19 15:01:00,58.5,13.8,28.94,SE,130,0.0,0.0,17,0.00,,---,0.00,VWS V14.01,2013-10-19 20:01:00,
2013-10-19 15:02:00,58.5,13.8,28.94,SW,236,3.1,3.6,17,0.00,,---,0.00,VWS V14.01,2013-10-19 20:02:00,
2013-10-19 15:03:00,58.6,14.0,28.94,West,270,0.0,2.2,17,0.00,,---,0.00,VWS V14.01,2013-10-19 20:03:00,
2013-10-19 15:05:00,58.6,14.0,28.94,SE,142,3.1,3.1,17,0.00,,---,0.00,VWS V14.01,2013-10-19 20:05:00,
2013-10-19 15:06:00,58.6,14.0,28.94,South,173,3.1,3.1,17,0.00,,---,0.00,VWS V14.01,2013-10-19 20:06:00,
2013-10-19 15:07:00,58.8,14.1,28.94,SSE,150,0.0,0.0,17,0.00,,---,0.00,VWS V14.01,2013-10-19 20:07:00,
2013-10-19 15:08:00,58.8,14.1,28.94,South,191,0.0,3.1,17,0.00,,---,0.00,VWS V14.01,2013-10-19 20:08:00,
2013-10-19 15:10:00,58.8,14.1,28.94,NNE,29,2.2,3.6,17,0.00,,---,0.00,VWS V14.01,2013-10-19 20:10:00,
2013-10-19 15:11:00,58.8,14.1,28.94,SSW,197,3.6,3.6,17,0.00,,---,0.00,VWS V14.01,2013-10-19 20:11:00,
2013-10-19 15:12:00,58.8,14.1,28.94,SSW,204,2.2,4.0,17,0.00,,---,0.00,VWS V14.01,2013-10-19 20:12:00,
2013-10-19 15:13:00,58.8,14.1,28.94,SSW,193,0.0,4.0,17,0.00,,---,0.00,VWS V14.01,2013-10-19 20:13:00,
2013-10-19 15:14:00,58.8,14.1,28.94,SE,146,2.2,4.0,17,0.00,,---,0.00,VWS V14.01,2013-10-19 20:14:00,
2013-10-19 15:15:00,58.8,14.1,28.94,South,190,0.0,4.5,17,0.00,,---,0.00,VWS V14.01,2013-10-19 20:15:00,
2013-10-19 15:16:00,58.8,14.1,28.94,SW,235,4.9,8.3,17,0.00,,---,0.00,VWS V14.01,2013-10-19 20:16:00,
2013-10-19 15:17:00,59.0,14.3,28.94,WSW,238,0.0,2.2,17,0.00,,---,0.00,VWS V14.01,2013-10-19 20:17:00,
2013-10-19 15:18:00,59.0,14.3,28.94,SW,235,0.0,2.2,17,0.00,,---,0.00,VWS V14.01,2013-10-19 20:18:00,
2013-10-19 15:19:00,59.0,14.3,28.94,South,178,0.0,3.1,17,0.00,,---,0.00,VWS V14.01,2013-10-19 20:19:00,
2013-10-19 15:21:00,59.0,14.3,28.94,West,268,6.7,6.7,17,0.00,,---,0.00,VWS V14.01,2013-10-19 20:21:00,
2013-10-19 15:23:00,59.0,14.3,28.94,SW,229,2.7,2.7,17,0.00,,---,0.00,VWS V14.01,2013-10-19 20:23:00,
2013-10-19 15:24:00,59.0,14.3,28.91,South,186,0.0,3.1,17,0.00,,---,0.00,VWS V14.01,2013-10-19 20:24:00,
2013-10-19 15:26:00,59.0,14.3,28.91,West,277,3.1,3.1,17,0.00,,---,0.00,VWS V14.01,2013-10-19 20:26:00,
2013-10-19 15:28:00,59.0,14.3,28.91,WSW,240,0.0,0.0,17,0.00,,---,0.00,VWS V14.01,2013-10-19 20:28:00,
2013-10-19 15:29:00,59.0,14.3,28.91,South,187,3.1,3.1,17,0.00,,---,0.00,VWS V14.01,2013-10-19 20:29:00,
2013-10-19 15:31:00,59.2,14.4,28.91,WNW,292,0.0,4.0,17,0.00,,---,0.00,VWS V14.01,2013-10-19 20:31:00,
2013-10-19 15:33:00,59.2,14.4,28.91,South,190,0.0,0.0,17,0.00,,---,0.00,VWS V14.01,2013-10-19 20:33:00,
2013-10-19 15:34:00,59.2,14.4,28.91,South,190,0.0,0.0,17,0.00,,---,0.00,VWS V14.01,2013-10-19 20:34:00,
2013-10-19 15:37:00,59.2,14.4,28.91,SSW,213,0.0,2.2,17,0.00,,---,0.00,VWS V14.01,2013-10-19 20:37:00,
2013-10-19 15:38:00,59.2,14.4,28.91,SSW,204,0.0,2.7,17,0.00,,---,0.00,VWS V14.01,2013-10-19 20:38:00,
2013-10-19 15:39:00,59.2,14.4,28.91,WSW,249,3.1,4.5,17,0.00,,---,0.00,VWS V14.01,2013-10-19 20:39:00,
2013-10-19 15:42:00,59.4,14.6,28.91,NW,316,2.7,2.7,17,0.00,,---,0.00,VWS V14.01,2013-10-19 20:42:00,
2013-10-19 15:43:00,59.4,14.6,28.91,South,179,0.0,2.2,17,0.00,,---,0.00,VWS V14.01,2013-10-19 20:43:00,
2013-10-19 15:44:00,59.4,14.6,28.91,SSW,211,2.2,2.7,17,0.00,,---,0.00,VWS V14.01,2013-10-19 20:44:00,
2013-10-19 15:47:00,59.4,14.6,28.91,NNW,338,0.0,0.0,17,0.00,,---,0.00,VWS V14.01,2013-10-19 20:47:00,
2013-10-19 15:48:00,59.4,14.6,28.91,West,279,2.7,2.7,17,0.00,,---,0.00,VWS V14.01,2013-10-19 20:48:00,
2013-10-19 15:49:00,59.4,14.6,28.91,South,184,0.0,0.0,17,0.00,,---,0.00,VWS V14.01,2013-10-19 20:49:00,
2013-10-19 15:50:00,59.4,14.6,28.91,SSW,199,3.1,3.1,17,0.00,,---,0.00,VWS V14.01,2013-10-19 20:50:00,
2013-10-19 15:52:00,59.4,14.6,28.91,SSW,203,2.2,4.9,17,0.00,,---,0.00,VWS V14.01,2013-10-19 20:52:00,
2013-10-19 15:53:00,59.4,14.6,28.91,SW,236,5.4,5.4,17,0.00,,---,0.00,VWS V14.01,2013-10-19 20:53:00,
2013-10-19 15:54:00,59.4,14.6,28.91,SSW,204,3.6,4.0,17,0.00,,---,0.00,VWS V14.01,2013-10-19 20:54:00,
2013-10-19 15:55:00,59.4,14.6,28.91,South,173,0.0,4.9,17,0.00,,---,0.00,VWS V14.01,2013-10-19 20:55:00,
2013-10-19 15:57:00,59.4,14.6,28.91,South,171,4.0,4.5,17,0.00,,---,0.00,VWS V14.01,2013-10-19 20:57:00,
2013-10-19 15:58:00,59.4,14.6,28.91,SSW,199,0.0,4.0,17,0.00,,---,0.00,VWS V14.01,2013-10-19 20:58:00,
2013-10-19 15:59:00,59.4,14.6,28.91,SSW,199,0.0,4.0,17,0.00,,---,0.00,VWS V14.01,2013-10-19 20:59:00,
2013-10-19 16:00:00,59.4,14.6,28.91,WSW,241,0.0,4.0,17,0.00,,---,0.00,VWS V14.01,2013-10-19 21:00:00,
2013-10-19 16:03:00,59.4,14.6,28.91,WSW,258,0.0,0.0,17,0.00,,---,0.00,VWS V14.01,2013-10-19 21:03:00,
2013-10-19 16:04:00,59.4,14.6,28.91,SSE,154,0.0,0.0,17,0.00,,---,0.00,VWS V14.01,2013-10-19 21:04:00,
2013-10-19 16:05:00,59.4,14.6,28.91,SSE,167,0.0,0.0,17,0.00,,---,0.00,VWS V14.01,2013-10-19 21:05:00,
2013-10-19 16:08:00,59.4,14.6,28.91,WSW,251,2.7,4.0,17,0.00,,---,0.00,VWS V14.01,2013-10-19 21:08:00,
2013-10-19 16:09:00,59.4,14.6,28.91,SW,230,4.9,4.9,17,0.00,,---,0.00,VWS V14.01,2013-10-19 21:09:00,
2013-10-19 16:11:00,59.4,14.6,28.91,SW,229,0.0,0.0,17,0.00,,---,0.00,VWS V14.01,2013-10-19 21:11:00,
2013-10-19 16:13:00,59.4,14.6,28.91,SSW,210,2.7,4.0,17,0.00,,---,0.00,VWS V14.01,2013-10-19 21:13:00,
2013-10-19 16:14:00,59.4,14.6,28.91,SSW,211,0.0,4.0,17,0.00,,---,0.00,VWS V14.01,2013-10-19 21:14:00,
2013-10-19 16:15:00,59.4,14.6,28.91,SSW,213,3.6,3.6,17,0.00,,---,0.00,VWS V14.01,2013-10-19 21:15:00,
2013-10-19 16:16:00,59.4,14.6,28.91,South,191,4.0,4.9,17,0.00,,---,0.00,VWS V14.01,2013-10-19 21:16:00,
2013-10-19 16:19:00,59.4,14.6,28.91,ESE,113,0.0,2.2,17,0.00,,---,0.00,VWS V14.01,2013-10-19 21:19:00,
2013-10-19 16:20:00,59.5,14.7,28.91,SSE,147,0.0,2.7,17,0.00,,---,0.00,VWS V14.01,2013-10-19 21:20:00,
2013-10-19 16:21:00,59.5,14.7,28.91,SW,231,2.2,2.7,17,0.00,,---,0.00,VWS V14.01,2013-10-19 21:21:00,
2013-10-19 16:24:00,59.5,14.7,28.91,SE,144,4.0,4.0,17,0.00,,---,0.00,VWS V14.01,2013-10-19 21:24:00,
2013-10-19 16:25:00,59.5,14.7,28.91,WSW,240,0.0,4.0,17,0.00,,---,0.00,VWS V14.01,2013-10-19 21:25:00,
2013-10-19 16:26:00,59.5,14.7,28.91,SSW,200,0.0,4.9,17,0.00,,---,0.00,VWS V14.01,2013-10-19 21:26:00,
2013-10-19 16:29:00,59.5,14.7,28.91,South,190,0.0,4.0,17,0.00,,---,0.00,VWS V14.01,2013-10-19 21:29:00,
2013-10-19 16:30:00,59.5,14.7,28.91,SW,226,3.1,3.1,17,0.00,,---,0.00,VWS V14.01,2013-10-19 21:30:00,
2013-10-19 16:31:00,59.5,14.7,28.91,SW,234,0.0,3.1,17,0.00,,---,0.00,VWS V14.01,2013-10-19 21:31:00,
2013-10-19 16:34:00,59.5,14.7,28.91,SSE,165,0.0,0.0,17,0.00,,---,0.00,VWS V14.01,2013-10-19 21:34:00,
2013-10-19 16:35:00,59.5,14.7,28.91,SSE,167,0.0,0.0,17,0.00,,---,0.00,VWS V14.01,2013-10-19 21:35:00,
2013-10-19 16:36:00,59.5,14.7,28.91,SSW,207,2.7,6.7,17,0.00,,---,0.00,VWS V14.01,2013-10-19 21:36:00,
2013-10-19 16:39:00,59.5,14.7,28.91,SSW,193,0.0,2.2,17,0.00,,---,0.00,VWS V14.01,2013-10-19 21:39:00,
2013-10-19 16:40:00,59.5,14.7,28.91,SE,145,2.7,3.6,17,0.00,,---,0.00,VWS V14.01,2013-10-19 21:40:00,
2013-10-19 16:41:00,59.5,14.7,28.91,WSW,239,4.9,7.6,17,0.00,,---,0.00,VWS V14.01,2013-10-19 21:41:00,
2013-10-19 16:44:00,59.5,14.7,28.91,South,191,2.2,4.9,17,0.00,,---,0.00,VWS V14.01,2013-10-19 21:44:00,
2013-10-19 16:45:00,59.5,14.7,28.91,WSW,248,2.7,2.7,17,0.00,,---,0.00,VWS V14.01,2013-10-19 21:45:00,
2013-10-19 16:46:00,59.5,14.7,28.91,WNW,289,2.2,4.0,17,0.00,,---,0.00,VWS V14.01,2013-10-19 21:46:00,
2013-10-19 16:49:00,59.7,14.9,28.91,West,273,0.0,2.7,17,0.00,,---,0.00,VWS V14.01,2013-10-19 21:49:00,
2013-10-19 16:50:00,59.7,14.9,28.91,SSW,193,2.7,2.7,17,0.00,,---,0.00,VWS V14.01,2013-10-19 21:50:00,
2013-10-19 16:51:00,59.7,14.9,28.91,WNW,299,0.0,2.2,17,0.00,,---,0.00,VWS V14.01,2013-10-19 21:51:00,
2013-10-19 16:52:00,59.7,14.9,28.91,SSE,165,3.6,3.6,17,0.00,,---,0.00,VWS V14.01,2013-10-19 21:52:00,
2013-10-19 16:54:00,59.5,14.7,28.91,SSE,158,3.1,3.1,17,0.00,,---,0.00,VWS V14.01,2013-10-19 21:54:00,
2013-10-19 16:55:00,59.5,14.7,28.91,SSW,205,2.7,3.1,17,0.00,,---,0.00,VWS V14.01,2013-10-19 21:55:00,
2013-10-19 16:56:00,59.5,14.7,28.91,South,187,2.7,3.1,17,0.00,,---,0.00,VWS V14.01,2013-10-19 21:56:00,
2013-10-19 16:57:00,59.5,14.7,28.91,WSW,254,2.2,2.2,17,0.00,,---,0.00,VWS V14.01,2013-10-19 21:57:00,
2013-10-19 16:59:00,59.5,14.7,28.91,SSW,208,2.7,3.6,17,0.00,,---,0.00,VWS V14.01,2013-10-19 21:59:00,
2013-10-19 17:00:00,59.5,14.7,28.91,SSE,159,0.0,2.2,17,0.00,,---,0.00,VWS V14.01,2013-10-19 22:00:00,
2013-10-19 17:01:00,59.5,14.7,28.91,WSW,237,6.3,6.3,17,0.00,,---,0.00,VWS V14.01,2013-10-19 22:01:00,
2013-10-19 17:02:00,59.5,14.7,28.91,SSE,149,3.1,3.1,17,0.00,,---,0.00,VWS V14.01,2013-10-19 22:02:00,
2013-10-19 17:04:00,59.5,14.7,28.91,West,279,4.9,5.8,17,0.00,,---,0.00,VWS V14.01,2013-10-19 22:04:00,
2013-10-19 17:05:00,59.5,14.7,28.91,South,180,2.7,4.9,17,0.00,,---,0.00,VWS V14.01,2013-10-19 22:05:00,
2013-10-19 17:06:00,59.5,14.7,28.91,SSW,199,3.1,4.9,17,0.00,,---,0.00,VWS V14.01,2013-10-19 22:06:00,
2013-10-19 17:07:00,59.5,14.7,28.91,North,8,2.2,2.2,17,0.00,,---,0.00,VWS V14.01,2013-10-19 22:07:00,
2013-10-19 17:08:00,59.5,14.7,28.91,WNW,294,2.7,2.7,17,0.00,,---,0.00,VWS V14.01,2013-10-19 22:08:00,
2013-10-19 17:09:00,59.4,14.6,28.91,WNW,289,2.7,5.4,17,0.00,,---,0.00,VWS V14.01,2013-10-19 22:09:00,
2013-10-19 17:10:00,59.5,14.7,28.91,SSE,151,0.0,2.7,17,0.00,,---,0.00,VWS V14.01,2013-10-19 22:10:00,
2013-10-19 17:11:00,59.5,14.7,28.91,SW,230,0.0,0.0,17,0.00,,---,0.00,VWS V14.01,2013-10-19 22:11:00,
2013-10-19 17:12:00,59.5,14.7,28.91,SE,140,2.7,2.7,17,0.00,,---,0.00,VWS V14.01,2013-10-19 22:12:00,
2013-10-19 17:13:00,59.5,14.7,28.91,SE,142,4.0,4.0,17,0.00,,---,0.00,VWS V14.01,2013-10-19 22:13:00,
2013-10-19 17:14:00,59.4,14.6,28.91,SSW,194,0.0,0.0,17,0.00,,---,0.00,VWS V14.01,2013-10-19 22:14:00,
2013-10-19 17:16:00,59.4,14.6,28.91,SSW,212,3.1,3.1,17,0.00,,---,0.00,VWS V14.01,2013-10-19 22:16:00,
2013-10-19 17:18:00,59.4,14.6,28.91,WSW,246,0.0,3.1,17,0.00,,---,0.00,VWS V14.01,2013-10-19 22:18:00,
2013-10-19 17:20:00,59.4,14.6,28.91,NE,46,0.0,2.7,17,0.00,,---,0.00,VWS V14.01,2013-10-19 22:20:00,
2013-10-19 17:21:00,59.4,14.6,28.91,SSE,165,0.0,0.0,17,0.00,,---,0.00,VWS V14.01,2013-10-19 22:21:00,
2013-10-19 17:23:00,59.4,14.6,28.91,SE,141,2.7,4.0,17,0.00,,---,0.00,VWS V14.01,2013-10-19 22:23:00,
2013-10-19 17:25:00,59.4,14.6,28.91,West,267,0.0,8.7,17,0.00,,---,0.00,VWS V14.01,2013-10-19 22:25:00,
2013-10-19 17:26:00,59.4,14.6,28.91,SSW,193,3.6,3.6,17,0.00,,---,0.00,VWS V14.01,2013-10-19 22:26:00,
2013-10-19 17:27:00,59.4,14.6,28.91,WSW,239,0.0,3.6,17,0.00,,---,0.00,VWS V14.01,2013-10-19 22:27:00,
2013-10-19 17:28:00,59.4,14.6,28.91,East,80,0.0,4.9,17,0.00,,---,0.00,VWS V14.01,2013-10-19 22:28:00,
2013-10-19 17:29:00,59.4,14.6,28.91,East,96,0.0,0.0,17,0.00,,---,0.00,VWS V14.01,2013-10-19 22:29:00,
2013-10-19 17:30:00,59.4,14.6,28.91,SSW,204,3.1,5.8,17,0.00,,---,0.00,VWS V14.01,2013-10-19 22:30:00,
2013-10-19 17:31:00,59.4,14.6,28.91,SSW,213,3.1,3.1,17,0.00,,---,0.00,VWS V14.01,2013-10-19 22:31:00,
2013-10-19 17:32:00,59.4,14.6,28.91,SSE,157,2.7,2.7,17,0.00,,---,0.00,VWS V14.01,2013-10-19 22:32:00,
2013-10-19 17:33:00,59.4,14.6,28.91,WSW,248,0.0,4.9,17,0.00,,---,0.00,VWS V14.01,2013-10-19 22:33:00,
2013-10-19 17:34:00,59.2,14.4,28.91,West,274,0.0,3.1,17,0.00,,---,0.00,VWS V14.01,2013-10-19 22:34:00,
2013-10-19 17:35:00,59.2,14.4,28.91,East,100,0.0,3.1,17,0.00,,---,0.00,VWS V14.01,2013-10-19 22:35:00,
2013-10-19 17:36:00,59.2,14.4,28.91,West,281,4.9,4.9,17,0.00,,---,0.00,VWS V14.01,2013-10-19 22:36:00,
2013-10-19 17:37:00,59.2,14.4,28.91,SSE,152,2.7,2.7,17,0.00,,---,0.00,VWS V14.01,2013-10-19 22:37:00,
2013-10-19 17:38:00,59.2,14.4,28.88,SSW,204,0.0,2.7,17,0.00,,---,0.00,VWS V14.01,2013-10-19 22:38:00,
2013-10-19 17:39:00,59.2,14.4,28.88,SSW,200,0.0,2.2,17,0.00,,---,0.00,VWS V14.01,2013-10-19 22:39:00,
2013-10-19 17:40:00,59.2,14.4,28.88,WSW,245,4.0,4.0,17,0.00,,---,0.00,VWS V14.01,2013-10-19 22:40:00,
2013-10-19 17:41:00,59.2,14.4,28.88,NW,319,2.7,3.6,17,0.00,,---,0.00,VWS V14.01,2013-10-19 22:41:00,
2013-10-19 17:43:00,59.2,14.4,28.88,SSW,211,2.7,4.0,17,0.00,,---,0.00,VWS V14.01,2013-10-19 22:43:00,
2013-10-19 17:44:00,59.2,14.4,28.88,WSW,238,0.0,0.0,17,0.00,,---,0.00,VWS V14.01,2013-10-19 22:44:00,
2013-10-19 17:45:00,59.2,14.4,28.88,NNW,335,3.6,3.6,17,0.00,,---,0.00,VWS V14.01,2013-10-19 22:45:00,
2013-10-19 17:46:00,59.2,14.4,28.88,West,264,0.0,0.0,17,0.00,,---,0.00,VWS V14.01,2013-10-19 22:46:00,
2013-10-19 17:48:00,59.0,14.3,28.88,SSW,205,0.0,4.0,17,0.00,,---,0.00,VWS V14.01,2013-10-19 22:48:00,
2013-10-19 17:50:00,59.0,14.3,28.88,SE,124,0.0,3.1,17,0.00,,---,0.00,VWS V14.01,2013-10-19 22:50:00,
2013-10-19 17:52:00,59.0,14.3,28.88,WSW,237,0.0,3.6,17,0.00,,---,0.00,VWS V14.01,2013-10-19 22:52:00,
2013-10-19 17:53:00,59.0,14.3,28.88,North,350,0.0,2.7,17,0.00,,---,0.00,VWS V14.01,2013-10-19 22:53:00,
2013-10-19 17:55:00,59.0,14.3,28.88,SW,232,2.7,2.7,17,0.00,,---,0.00,VWS V14.01,2013-10-19 22:55:00,
2013-10-19 17:56:00,59.0,14.3,28.88,SSE,158,0.0,2.7,17,0.00,,---,0.00,VWS V14.01,2013-10-19 22:56:00,
2013-10-19 17:57:00,58.8,14.1,28.88,WNW,292,3.6,6.3,17,0.00,,---,0.00,VWS V14.01,2013-10-19 22:57:00,
2013-10-19 17:58:00,58.8,14.1,28.88,South,191,0.0,0.0,17,0.00,,---,0.00,VWS V14.01,2013-10-19 22:58:00,
2013-10-19 17:59:00,58.8,14.1,28.88,South,182,0.0,0.0,17,0.00,,---,0.00,VWS V14.01,2013-10-19 22:59:00,
2013-10-19 18:00:00,58.8,14.1,28.88,SW,223,0.0,4.0,17,0.00,,---,0.00,VWS V14.01,2013-10-19 23:00:00,
2013-10-19 18:01:00,58.8,14.1,28.88,SW,219,0.0,0.0,17,0.00,,---,0.00,VWS V14.01,2013-10-19 23:01:00,
2013-10-19 18:02:00,58.8,14.1,28.88,SSW,192,0.0,0.0,17,0.00,,---,0.00,VWS V14.01,2013-10-19 23:02:00,
2013-10-19 18:03:00,58.6,14.0,28.88,SSW,192,0.0,0.0,17,0.00,,---,0.00,VWS V14.01,2013-10-19 23:03:00,
2013-10-19 18:04:00,58.6,14.0,28.88,SSW,192,0.0,0.0,17,0.00,,---,0.00,VWS V14.01,2013-10-19 23:04:00,
2013-10-19 18:06:00,58.6,14.0,28.88,SSW,203,0.0,0.0,17,0.00,,---,0.00,VWS V14.01,2013-10-19 23:06:00,
2013-10-19 18:07:00,58.5,13.8,28.88,SE,143,0.0,2.2,17,0.00,,---,0.00,VWS V14.01,2013-10-19 23:07:00,
2013-10-19 18:08:00,58.5,13.8,28.88,NW,310,0.0,0.0,17,0.00,,---,0.00,VWS V14.01,2013-10-19 23:08:00,
2013-10-19 18:09:00,58.5,13.8,28.88,WNW,297,0.0,0.0,17,0.00,,---,0.00,VWS V14.01,2013-10-19 23:09:00,
2013-10-19 18:11:00,58.5,13.8,28.88,West,276,0.0,3.1,17,0.00,,---,0.00,VWS V14.01,2013-10-19 23:11:00,
2013-10-19 18:12:00,58.5,13.8,28.88,SSW,193,0.0,0.0,17,0.00,,---,0.00,VWS V14.01,2013-10-19 23:12:00,
2013-10-19 18:14:00,58.3,13.7,28.88,SSW,194,0.0,0.0,17,0.00,,---,0.00,VWS V14.01,2013-10-19 23:14:00,
2013-10-19 18:16:00,58.3,13.7,28.88,SSW,194,0.0,0.0,17,0.00,,---,0.00,VWS V14.01,2013-10-19 23:16:00,
2013-10-19 18:17:00,58.3,13.7,28.88,SSW,194,0.0,0.0,17,0.00,,---,0.00,VWS V14.01,2013-10-19 23:17:00,
2013-10-19 18:19:00,58.1,13.5,28.88,SSW,194,0.0,0.0,17,0.00,,---,0.00,VWS V14.01,2013-10-19 23:19:00,
2013-10-19 18:21:00,58.1,13.5,28.88,SSE,167,0.0,0.0,17,0.00,,---,0.00,VWS V14.01,2013-10-19 23:21:00,
2013-10-19 18:22:00,58.1,13.5,28.88,SSE,167,0.0,0.0,17,0.00,,---,0.00,VWS V14.01,2013-10-19 23:22:00,
2013-10-19 18:24:00,57.9,13.4,28.88,SSE,165,0.0,0.0,17,0.00,,---,0.00,VWS V14.01,2013-10-19 23:24:00,
2013-10-19 18:25:00,57.9,13.4,28.88,SSE,165,0.0,0.0,17,0.00,,---,0.00,VWS V14.01,2013-10-19 23:25:00,
2013-10-19 18:26:00,57.9,13.4,28.88,SSE,165,0.0,0.0,17,0.00,,---,0.00,VWS V14.01,2013-10-19 23:26:00,
2013-10-19 18:27:00,57.7,13.2,28.88,SSE,165,0.0,0.0,17,0.00,,---,0.00,VWS V14.01,2013-10-19 23:27:00,
2013-10-19 18:29:00,57.7,13.2,28.88,SSE,165,0.0,0.0,17,0.00,,---,0.00,VWS V14.01,2013-10-19 23:29:00,
2013-10-19 18:30:00,57.7,13.2,28.88,SSE,165,0.0,0.0,17,0.00,,---,0.00,VWS V14.01,2013-10-19 23:30:00,
2013-10-19 18:31:00,57.6,13.1,28.88,SSE,165,0.0,0.0,17,0.00,,---,0.00,VWS V14.01,2013-10-19 23:31:00,
2013-10-19 18:32:00,57.6,13.1,28.88,SSE,165,0.0,0.0,17,0.00,,---,0.00,VWS V14.01,2013-10-19 23:32:00,
2013-10-19 18:34:00,57.6,13.1,28.88,SSE,165,0.0,0.0,17,0.00,,---,0.00,VWS V14.01,2013-10-19 23:34:00,
2013-10-19 18:36:00,57.4,12.9,28.88,SSE,165,0.0,0.0,17,0.00,,---,0.00,VWS V14.01,2013-10-19 23:36:00,
2013-10-19 18:37:00,57.4,12.9,28.88,SSE,165,0.0,0.0,17,0.00,,---,0.00,VWS V14.01,2013-10-19 23:37:00,
2013-10-19 18:40:00,57.2,12.8,28.88,SSE,165,0.0,0.0,17,0.00,,---,0.00,VWS V14.01,2013-10-19 23:40:00,
2013-10-19 18:41:00,57.2,12.8,28.88,SSE,165,0.0,0.0,17,0.00,,---,0.00,VWS V14.01,2013-10-19 23:41:00,
2013-10-19 18:42:00,57.2,12.8,28.88,SSE,165,0.0,0.0,17,0.00,,---,0.00,VWS V14.01,2013-10-19 23:42:00,
2013-10-19 18:43:00,57.0,12.7,28.88,SSE,165,0.0,0.0,17,0.00,,---,0.00,VWS V14.01,2013-10-19 23:43:00,
2013-10-19 18:45:00,57.0,12.7,28.88,SSE,165,0.0,0.0,17,0.00,,---,0.00,VWS V14.01,2013-10-19 23:45:00,
2013-10-19 18:46:00,56.8,12.5,28.88,SSE,165,0.0,0.0,17,0.00,,---,0.00,VWS V14.01,2013-10-19 23:46:00,
2013-10-19 18:47:00,56.8,12.5,28.88,SSE,165,0.0,0.0,17,0.00,,---,0.00,VWS V14.01,2013-10-19 23:47:00,
2013-10-19 18:48:00,56.8,12.5,28.88,SSE,165,0.0,0.0,17,0.00,,---,0.00,VWS V14.01,2013-10-19 23:48:00,
2013-10-19 18:50:00,56.7,12.4,28.88,SSE,165,0.0,0.0,17,0.00,,---,0.00,VWS V14.01,2013-10-19 23:50:00,
2013-10-19 18:51:00,56.7,12.4,28.88,SSE,165,0.0,0.0,17,0.00,,---,0.00,VWS V14.01,2013-10-19 23:51:00,
2013-10-19 18:52:00,56.7,12.4,28.88,SSE,165,0.0,0.0,17,0.00,,---,0.00,VWS V14.01,2013-10-19 23:52:00,
2013-10-19 18:53:00,56.5,12.2,28.88,SSE,165,0.0,0.0,17,0.00,,---,0.00,VWS V14.01,2013-10-19 23:53:00,
2013-10-19 18:55:00,56.5,12.2,28.88,SSE,165,0.0,0.0,17,0.00,,---,0.00,VWS V14.01,2013-10-19 23:55:00,
2013-10-19 18:56:00,56.3,12.1,28.88,SSE,165,0.0,0.0,17,0.00,,---,0.00,VWS V14.01,2013-10-19 23:56:00,
2013-10-19 18:57:00,56.3,12.1,28.88,SSE,165,0.0,0.0,17,0.00,,---,0.00,VWS V14.01,2013-10-19 23:57:00,
2013-10-19 18:58:00,56.3,12.1,28.88,SSE,165,0.0,0.0,17,0.00,,---,0.00,VWS V14.01,2013-10-19 23:58:00,
2013-10-19 19:00:00,56.1,11.9,28.88,SSE,165,0.0,0.0,17,0.00,,---,0.00,VWS V14.01,2013-10-20 00:00:00,
2013-10-19 19:01:00,55.9,11.8,28.88,SSE,165,0.0,0.0,17,0.00,,---,0.00,VWS V14.01,2013-10-20 00:01:00,
2013-10-19 19:02:00,55.9,11.8,28.88,SSE,165,0.0,0.0,17,0.00,,---,0.00,VWS V14.01,2013-10-20 00:02:00,
2013-10-19 19:03:00,55.9,11.8,28.88,SSE,165,0.0,0.0,17,0.00,,---,0.00,VWS V14.01,2013-10-20 00:03:00,
2013-10-19 19:05:00,55.8,11.6,28.88,SSE,165,0.0,0.0,17,0.00,,---,0.00,VWS V14.01,2013-10-20 00:05:00,
2013-10-19 19:07:00,55.8,11.6,28.88,SSE,165,0.0,0.0,17,0.00,,---,0.00,VWS V14.01,2013-10-20 00:07:00,
2013-10-19 19:08:00,55.6,11.5,28.91,SSE,165,0.0,0.0,17,0.00,,---,0.00,VWS V14.01,2013-10-20 00:08:00,
2013-10-19 19:10:00,55.4,11.3,28.91,SSE,165,0.0,0.0,17,0.00,,---,0.00,VWS V14.01,2013-10-20 00:10:00,
2013-10-19 19:12:00,55.4,11.3,28.91,SSE,165,0.0,0.0,17,0.00,,---,0.00,VWS V14.01,2013-10-20 00:12:00,
2013-10-19 19:13:00,55.2,12.5,28.91,SSE,165,0.0,0.0,18,0.00,,---,0.00,VWS V14.01,2013-10-20 00:13:00,
2013-10-19 19:15:00,55.0,12.3,28.91,SSE,165,0.0,0.0,18,0.00,,---,0.00,VWS V14.01,2013-10-20 00:15:00,
2013-10-19 19:17:00,55.0,12.3,28.91,SSE,165,0.0,0.0,18,0.00,,---,0.00,VWS V14.01,2013-10-20 00:17:00,
2013-10-19 19:18:00,55.0,12.3,28.91,SSE,165,0.0,0.0,18,0.00,,---,0.00,VWS V14.01,2013-10-20 00:18:00,
2013-10-19 19:20:00,54.9,12.2,28.91,SSE,165,0.0,0.0,18,0.00,,---,0.00,VWS V14.01,2013-10-20 00:20:00,
2013-10-19 19:22:00,54.7,12.0,28.91,SSE,165,0.0,0.0,18,0.00,,---,0.00,VWS V14.01,2013-10-20 00:22:00,
2013-10-19 19:23:00,54.7,12.0,28.91,SSE,165,0.0,0.0,18,0.00,,---,0.00,VWS V14.01,2013-10-20 00:23:00,
2013-10-19 19:24:00,54.5,11.9,28.91,SSE,165,0.0,0.0,18,0.00,,---,0.00,VWS V14.01,2013-10-20 00:24:00,
2013-10-19 19:26:00,54.5,11.9,28.91,SSE,165,0.0,0.0,18,0.00,,---,0.00,VWS V14.01,2013-10-20 00:26:00,
2013-10-19 19:27:00,54.3,11.7,28.91,SSE,165,0.0,0.0,18,0.00,,---,0.00,VWS V14.01,2013-10-20 00:27:00,
2013-10-19 19:28:00,54.3,11.7,28.91,SSE,165,0.0,0.0,18,0.00,,---,0.00,VWS V14.01,2013-10-20 00:28:00,
2013-10-19 19:29:00,54.3,11.7,28.91,SSE,165,0.0,0.0,18,0.00,,---,0.00,VWS V14.01,2013-10-20 00:29:00,
2013-10-19 19:31:00,54.1,11.6,28.91,SSE,165,0.0,0.0,18,0.00,,---,0.00,VWS V14.01,2013-10-20 00:31:00,
2013-10-19 19:33:00,54.1,11.6,28.91,SSE,165,0.0,0.0,18,0.00,,---,0.00,VWS V14.01,2013-10-20 00:33:00,
2013-10-19 19:34:00,54.0,11.4,28.91,SSE,165,0.0,0.0,18,0.00,,---,0.00,VWS V14.01,2013-10-20 00:34:00,
2013-10-19 19:36:00,54.0,11.4,28.91,SSE,165,0.0,0.0,18,0.00,,---,0.00,VWS V14.01,2013-10-20 00:36:00,
2013-10-19 19:38:00,53.8,11.3,28.91,SSE,165,0.0,0.0,18,0.00,,---,0.00,VWS V14.01,2013-10-20 00:38:00,
2013-10-19 19:39:00,53.8,11.3,28.91,SSE,165,0.0,0.0,18,0.00,,---,0.00,VWS V14.01,2013-10-20 00:39:00,
2013-10-19 19:41:00,53.6,11.1,28.91,SSE,165,0.0,0.0,18,0.00,,---,0.00,VWS V14.01,2013-10-20 00:41:00,
2013-10-19 19:43:00,53.4,11.0,28.91,SSE,165,0.0,0.0,18,0.00,,---,0.00,VWS V14.01,2013-10-20 00:43:00,
2013-10-19 19:44:00,53.4,11.0,28.91,SSE,165,0.0,0.0,18,0.00,,---,0.00,VWS V14.01,2013-10-20 00:44:00,
2013-10-19 19:46:00,53.2,10.9,28.91,SSE,165,0.0,0.0,18,0.00,,---,0.00,VWS V14.01,2013-10-20 00:46:00,
2013-10-19 19:48:00,53.2,10.9,28.91,SSE,165,0.0,0.0,18,0.00,,---,0.00,VWS V14.01,2013-10-20 00:48:00,
2013-10-19 19:49:00,53.1,10.7,28.91,SSE,165,0.0,0.0,18,0.00,,---,0.00,VWS V14.01,2013-10-20 00:49:00,
2013-10-19 19:51:00,53.1,10.7,28.91,SSE,165,0.0,0.0,18,0.00,,---,0.00,VWS V14.01,2013-10-20 00:51:00,
2013-10-19 19:53:00,53.1,10.7,28.91,SSE,165,0.0,0.0,18,0.00,,---,0.00,VWS V14.01,2013-10-20 00:53:00,
2013-10-19 19:54:00,52.9,10.6,28.91,SSE,165,0.0,0.0,18,0.00,,---,0.00,VWS V14.01,2013-10-20 00:54:00,
2013-10-19 19:56:00,52.9,10.6,28.91,SSE,165,0.0,0.0,18,0.00,,---,0.00,VWS V14.01,2013-10-20 00:56:00,
2013-10-19 19:58:00,52.7,10.4,28.91,SSE,165,0.0,0.0,18,0.00,,---,0.00,VWS V14.01,2013-10-20 00:58:00,
2013-10-19 19:59:00,52.7,10.4,28.91,SSE,165,0.0,0.0,18,0.00,,---,0.00,VWS V14.01,2013-10-20 00:59:00,
2013-10-19 20:01:00,52.5,10.2,28.91,SSE,165,0.0,0.0,18,0.00,,---,0.00,VWS V14.01,2013-10-20 01:01:00,
2013-10-19 20:03:00,52.5,10.2,28.91,SSE,165,0.0,0.0,18,0.00,,---,0.00,VWS V14.01,2013-10-20 01:03:00,
2013-10-19 20:04:00,52.3,10.1,28.91,SSE,165,0.0,0.0,18,0.00,,---,0.00,VWS V14.01,2013-10-20 01:04:00,
2013-10-19 20:06:00,52.3,10.1,28.91,SSE,165,0.0,0.0,18,0.00,,---,0.00,VWS V14.01,2013-10-20 01:06:00,
2013-10-19 20:08:00,52.2,10.0,28.91,SSE,165,0.0,0.0,18,0.00,,---,0.00,VWS V14.01,2013-10-20 01:08:00,
2013-10-19 20:09:00,52.2,10.0,28.91,SSE,165,0.0,0.0,18,0.00,,---,0.00,VWS V14.01,2013-10-20 01:09:00,
2013-10-19 20:10:00,52.2,10.0,28.91,SSE,165,0.0,0.0,18,0.00,,---,0.00,VWS V14.01,2013-10-20 01:10:00,
2013-10-19 20:11:00,52.0,9.8,28.91,SSE,165,0.0,0.0,18,0.00,,---,0.00,VWS V14.01,2013-10-20 01:11:00,
2013-10-19 20:13:00,51.8,9.7,28.91,SSE,165,0.0,0.0,18,0.00,,---,0.00,VWS V14.01,2013-10-20 01:13:00,
2013-10-19 20:14:00,51.8,9.7,28.91,SSE,165,0.0,0.0,18,0.00,,---,0.00,VWS V14.01,2013-10-20 01:14:00,
2013-10-19 20:15:00,51.8,9.7,28.91,SSE,165,0.0,0.0,18,0.00,,---,0.00,VWS V14.01,2013-10-20 01:15:00,
2013-10-19 20:16:00,51.8,9.7,28.91,SSE,165,0.0,0.0,18,0.00,,---,0.00,VWS V14.01,2013-10-20 01:16:00,
2013-10-19 20:18:00,51.6,10.7,28.91,SSE,165,0.0,0.0,19,0.00,,---,0.00,VWS V14.01,2013-10-20 01:18:00,
2013-10-19 20:19:00,51.6,10.7,28.91,SSE,165,0.0,0.0,19,0.00,,---,0.00,VWS V14.01,2013-10-20 01:19:00,
2013-10-19 20:20:00,51.6,10.7,28.91,SSE,165,0.0,0.0,19,0.00,,---,0.00,VWS V14.01,2013-10-20 01:20:00,
2013-10-19 20:21:00,51.4,10.6,28.91,SSE,165,0.0,0.0,19,0.00,,---,0.00,VWS V14.01,2013-10-20 01:21:00,
2013-10-19 20:23:00,51.4,10.6,28.91,SSE,165,0.0,0.0,19,0.00,,---,0.00,VWS V14.01,2013-10-20 01:23:00,
2013-10-19 20:24:00,51.3,10.4,28.91,SSE,165,0.0,0.0,19,0.00,,---,0.00,VWS V14.01,2013-10-20 01:24:00,
2013-10-19 20:25:00,51.3,10.4,28.91,SSE,165,0.0,0.0,19,0.00,,---,0.00,VWS V14.01,2013-10-20 01:25:00,
2013-10-19 20:26:00,51.3,10.4,28.91,SSE,165,0.0,0.0,19,0.00,,---,0.00,VWS V14.01,2013-10-20 01:26:00,
2013-10-19 20:28:00,51.1,10.3,28.91,SSE,165,0.0,0.0,19,0.00,,---,0.00,VWS V14.01,2013-10-20 01:28:00,
2013-10-19 20:29:00,51.1,10.3,28.91,SSE,165,0.0,0.0,19,0.00,,---,0.00,VWS V14.01,2013-10-20 01:29:00,
2013-10-19 20:30:00,51.1,10.3,28.91,SSE,165,0.0,0.0,19,0.00,,---,0.00,VWS V14.01,2013-10-20 01:30:00,
2013-10-19 20:31:00,50.9,10.1,28.91,SSE,165,0.0,0.0,19,0.00,,---,0.00,VWS V14.01,2013-10-20 01:31:00,
2013-10-19 20:32:00,50.9,10.1,28.91,SSE,165,0.0,0.0,19,0.00,,---,0.00,VWS V14.01,2013-10-20 01:32:00,
2013-10-19 20:34:00,50.9,10.1,28.91,SSE,165,0.0,0.0,19,0.00,,---,0.00,VWS V14.01,2013-10-20 01:34:00,
2013-10-19 20:35:00,50.9,10.1,28.91,SSE,165,0.0,0.0,19,0.00,,---,0.00,VWS V14.01,2013-10-20 01:35:00,
2013-10-19 20:36:00,50.7,10.0,28.91,SSE,165,0.0,0.0,19,0.00,,---,0.00,VWS V14.01,2013-10-20 01:36:00,
2013-10-19 20:37:00,50.7,10.0,28.91,SSE,165,0.0,0.0,19,0.00,,---,0.00,VWS V14.01,2013-10-20 01:37:00,
2013-10-19 20:39:00,50.7,10.0,28.91,SSE,165,0.0,0.0,19,0.00,,---,0.00,VWS V14.01,2013-10-20 01:39:00,
2013-10-19 20:40:00,50.5,9.8,28.91,SSE,165,0.0,0.0,19,0.00,,---,0.00,VWS V14.01,2013-10-20 01:40:00,
2013-10-19 20:41:00,50.5,9.8,28.91,SSE,165,0.0,0.0,19,0.00,,---,0.00,VWS V14.01,2013-10-20 01:41:00,
2013-10-19 20:42:00,50.5,9.8,28.91,SSE,165,0.0,0.0,19,0.00,,---,0.00,VWS V14.01,2013-10-20 01:42:00,
2013-10-19 20:44:00,50.4,9.7,28.91,SSE,165,0.0,0.0,19,0.00,,---,0.00,VWS V14.01,2013-10-20 01:44:00,
2013-10-19 20:45:00,50.4,9.7,28.91,SSE,165,0.0,0.0,19,0.00,,---,0.00,VWS V14.01,2013-10-20 01:45:00,
2013-10-19 20:46:00,50.4,9.7,28.91,SSE,165,0.0,0.0,19,0.00,,---,0.00,VWS V14.01,2013-10-20 01:46:00,
2013-10-19 20:47:00,50.4,9.7,28.91,SSE,165,0.0,0.0,19,0.00,,---,0.00,VWS V14.01,2013-10-20 01:47:00,
2013-10-19 20:49:00,50.2,9.5,28.91,SSE,165,0.0,0.0,19,0.00,,---,0.00,VWS V14.01,2013-10-20 01:49:00,
2013-10-19 20:50:00,50.2,9.5,28.91,SSE,165,0.0,0.0,19,0.00,,---,0.00,VWS V14.01,2013-10-20 01:50:00,
2013-10-19 20:51:00,50.2,9.5,28.91,SSE,165,0.0,0.0,19,0.00,,---,0.00,VWS V14.01,2013-10-20 01:51:00,
2013-10-19 20:52:00,50.2,9.5,28.91,SSE,165,0.0,0.0,19,0.00,,---,0.00,VWS V14.01,2013-10-20 01:52:00,
2013-10-19 20:53:00,50.0,9.4,28.91,SSE,165,0.0,0.0,19,0.00,,---,0.00,VWS V14.01,2013-10-20 01:53:00,
2013-10-19 20:54:00,50.0,9.4,28.91,SSE,165,0.0,0.0,19,0.00,,---,0.00,VWS V14.01,2013-10-20 01:54:00,
2013-10-19 20:55:00,50.0,9.4,28.91,SSE,165,0.0,0.0,19,0.00,,---,0.00,VWS V14.01,2013-10-20 01:55:00,
2013-10-19 20:56:00,50.0,9.4,28.91,SSE,165,0.0,0.0,19,0.00,,---,0.00,VWS V14.01,2013-10-20 01:56:00,
2013-10-19 20:57:00,50.0,9.4,28.91,SSE,165,0.0,0.0,19,0.00,,---,0.00,VWS V14.01,2013-10-20 01:57:00,
2013-10-19 20:59:00,49.8,9.2,28.91,SSE,165,0.0,0.0,19,0.00,,---,0.00,VWS V14.01,2013-10-20 01:59:00,
2013-10-19 21:00:00,49.8,9.2,28.91,SSE,165,0.0,0.0,19,0.00,,---,0.00,VWS V14.01,2013-10-20 02:00:00,
2013-10-19 21:01:00,49.8,9.2,28.91,SSE,165,0.0,0.0,19,0.00,,---,0.00,VWS V14.01,2013-10-20 02:01:00,
2013-10-19 21:02:00,49.8,9.2,28.91,SSE,165,0.0,0.0,19,0.00,,---,0.00,VWS V14.01,2013-10-20 02:02:00,
2013-10-19 21:04:00,49.6,9.1,28.91,SSE,165,0.0,0.0,19,0.00,,---,0.00,VWS V14.01,2013-10-20 02:04:00,
2013-10-19 21:05:00,49.6,9.1,28.91,SSE,165,0.0,0.0,19,0.00,,---,0.00,VWS V14.01,2013-10-20 02:05:00,
2013-10-19 21:06:00,49.6,9.1,28.91,SSE,165,0.0,0.0,19,0.00,,---,0.00,VWS V14.01,2013-10-20 02:06:00,
2013-10-19 21:07:00,49.5,8.9,28.91,SSE,165,0.0,0.0,19,0.00,,---,0.00,VWS V14.01,2013-10-20 02:07:00,
2013-10-19 21:10:00,49.5,8.9,28.91,SSE,165,0.0,0.0,19,0.00,,---,0.00,VWS V14.01,2013-10-20 02:10:00,
2013-10-19 21:11:00,49.5,8.9,28.91,SSE,165,0.0,0.0,19,0.00,,---,0.00,VWS V14.01,2013-10-20 02:11:00,
2013-10-19 21:12:00,49.3,8.8,28.91,SSE,165,0.0,0.0,19,0.00,,---,0.00,VWS V14.01,2013-10-20 02:12:00,
2013-10-19 21:15:00,49.3,8.8,28.91,SSE,165,0.0,0.0,19,0.00,,---,0.00,VWS V14.01,2013-10-20 02:15:00,
2013-10-19 21:16:00,49.3,8.8,28.91,SSE,165,0.0,0.0,19,0.00,,---,0.00,VWS V14.01,2013-10-20 02:16:00,
2013-10-19 21:17:00,49.1,8.6,28.91,SSE,165,0.0,0.0,19,0.00,,---,0.00,VWS V14.01,2013-10-20 02:17:00,
2013-10-19 21:20:00,49.1,8.6,28.91,SSE,165,0.0,0.0,19,0.00,,---,0.00,VWS V14.01,2013-10-20 02:20:00,
2013-10-19 21:21:00,49.1,8.6,28.91,SSE,165,0.0,0.0,19,0.00,,---,0.00,VWS V14.01,2013-10-20 02:21:00,
2013-10-19 21:22:00,48.9,8.5,28.91,SSE,165,0.0,0.0,19,0.00,,---,0.00,VWS V14.01,2013-10-20 02:22:00,
2013-10-19 21:25:00,48.9,8.5,28.91,SSE,165,0.0,0.0,19,0.00,,---,0.00,VWS V14.01,2013-10-20 02:25:00,
2013-10-19 21:26:00,48.7,8.3,28.91,SSE,165,0.0,0.0,19,0.00,,---,0.00,VWS V14.01,2013-10-20 02:26:00,
2013-10-19 21:27:00,48.7,8.3,28.91,SSE,165,0.0,0.0,19,0.00,,---,0.00,VWS V14.01,2013-10-20 02:27:00,
2013-10-19 21:31:00,48.7,8.3,28.91,SSE,165,0.0,0.0,19,0.00,,---,0.00,VWS V14.01,2013-10-20 02:31:00,
2013-10-19 21:32:00,48.7,8.3,28.91,SSE,165,0.0,0.0,19,0.00,,---,0.00,VWS V14.01,2013-10-20 02:32:00,
2013-10-19 21:33:00,48.7,8.3,28.91,SSE,165,0.0,0.0,19,0.00,,---,0.00,VWS V14.01,2013-10-20 02:33:00,
2013-10-19 21:36:00,48.6,8.2,28.91,SSE,165,0.0,0.0,19,0.00,,---,0.00,VWS V14.01,2013-10-20 02:36:00,
2013-10-19 21:37:00,48.6,8.2,28.91,SSE,165,0.0,0.0,19,0.00,,---,0.00,VWS V14.01,2013-10-20 02:37:00,
2013-10-19 21:38:00,48.6,8.2,28.91,SSE,165,0.0,0.0,19,0.00,,---,0.00,VWS V14.01,2013-10-20 02:38:00,
2013-10-19 21:41:00,48.4,8.0,28.91,SSE,166,0.0,0.0,19,0.00,,---,0.00,VWS V14.01,2013-10-20 02:41:00,
2013-10-19 21:42:00,48.4,8.0,28.91,SSE,166,0.0,0.0,19,0.00,,---,0.00,VWS V14.01,2013-10-20 02:42:00,
2013-10-19 21:43:00,48.4,8.0,28.91,SSE,166,0.0,0.0,19,0.00,,---,0.00,VWS V14.01,2013-10-20 02:43:00,
2013-10-19 21:46:00,48.4,8.0,28.91,SSE,166,0.0,0.0,19,0.00,,---,0.00,VWS V14.01,2013-10-20 02:46:00,
2013-10-19 21:47:00,48.4,8.0,28.91,SSE,166,0.0,0.0,19,0.00,,---,0.00,VWS V14.01,2013-10-20 02:47:00,
2013-10-19 21:48:00,48.2,7.9,28.91,SSE,166,0.0,0.0,19,0.00,,---,0.00,VWS V14.01,2013-10-20 02:48:00,
2013-10-19 21:51:00,48.2,7.9,28.91,SSE,166,0.0,0.0,19,0.00,,---,0.00,VWS V14.01,2013-10-20 02:51:00,
2013-10-19 21:52:00,48.2,7.9,28.91,SSE,166,0.0,0.0,19,0.00,,---,0.00,VWS V14.01,2013-10-20 02:52:00,
2013-10-19 21:53:00,48.2,7.9,28.91,SSE,166,0.0,0.0,19,0.00,,---,0.00,VWS V14.01,2013-10-20 02:53:00,
2013-10-19 21:54:00,48.2,7.9,28.91,SSE,166,0.0,0.0,19,0.00,,---,0.00,VWS V14.01,2013-10-20 02:54:00,
2013-10-19 21:56:00,48.2,7.9,28.91,SSE,166,0.0,0.0,19,0.00,,---,0.00,VWS V14.01,2013-10-20 02:56:00,
2013-10-19 21:57:00,48.2,7.9,28.91,SSE,166,0.0,0.0,19,0.00,,---,0.00,VWS V14.01,2013-10-20 02:57:00,
2013-10-19 21:58:00,48.2,7.9,28.91,SSE,166,0.0,0.0,19,0.00,,---,0.00,VWS V14.01,2013-10-20 02:58:00,
2013-10-19 22:00:00,48.2,7.9,28.91,SSE,152,0.0,0.0,19,0.00,,---,0.00,VWS V14.01,2013-10-20 03:00:00,
2013-10-19 22:01:00,48.2,7.9,28.91,SSE,152,0.0,0.0,19,0.00,,---,0.00,VWS V14.01,2013-10-20 03:01:00,
2013-10-19 22:03:00,48.2,7.9,28.91,SSE,152,0.0,0.0,19,0.00,,---,0.00,VWS V14.01,2013-10-20 03:03:00,
2013-10-19 22:04:00,48.2,7.9,28.91,SSE,152,0.0,0.0,19,0.00,,---,0.00,VWS V14.01,2013-10-20 03:04:00,
2013-10-19 22:05:00,48.2,7.9,28.91,SSE,152,0.0,0.0,19,0.00,,---,0.00,VWS V14.01,2013-10-20 03:05:00,
2013-10-19 22:07:00,48.2,7.9,28.91,SSE,152,0.0,0.0,19,0.00,,---,0.00,VWS V14.01,2013-10-20 03:07:00,
2013-10-19 22:08:00,48.2,7.9,28.91,SSW,213,0.0,0.0,19,0.00,,---,0.00,VWS V14.01,2013-10-20 03:08:00,
2013-10-19 22:09:00,48.2,7.9,28.91,SSW,213,0.0,0.0,19,0.00,,---,0.00,VWS V14.01,2013-10-20 03:09:00,
2013-10-19 22:11:00,48.2,7.9,28.91,SSW,194,0.0,0.0,19,0.00,,---,0.00,VWS V14.01,2013-10-20 03:11:00,
2013-10-19 22:12:00,48.2,7.9,28.91,SSW,206,0.0,0.0,19,0.00,,---,0.00,VWS V14.01,2013-10-20 03:12:00,
2013-10-19 22:13:00,48.2,7.9,28.91,SSW,206,0.0,0.0,19,0.00,,---,0.00,VWS V14.01,2013-10-20 03:13:00,
2013-10-19 22:14:00,48.2,7.9,28.91,SSW,206,0.0,0.0,19,0.00,,---,0.00,VWS V14.01,2013-10-20 03:14:00,
2013-10-19 22:16:00,48.0,7.7,28.91,SSW,206,0.0,0.0,19,0.00,,---,0.00,VWS V14.01,2013-10-20 03:16:00,
2013-10-19 22:17:00,48.0,7.7,28.91,SSW,206,0.0,0.0,19,0.00,,---,0.00,VWS V14.01,2013-10-20 03:17:00,
2013-10-19 22:18:00,48.0,7.7,28.91,SSW,206,0.0,0.0,19,0.00,,---,0.00,VWS V14.01,2013-10-20 03:18:00,
2013-10-19 22:19:00,48.0,7.7,28.91,SSW,206,0.0,0.0,19,0.00,,---,0.00,VWS V14.01,2013-10-20 03:19:00,
2013-10-19 22:20:00,48.0,7.7,28.91,SSW,206,0.0,0.0,19,0.00,,---,0.00,VWS V14.01,2013-10-20 03:20:00,
2013-10-19 22:21:00,48.0,7.7,28.91,SSW,206,0.0,0.0,19,0.00,,---,0.00,VWS V14.01,2013-10-20 03:21:00,
2013-10-19 22:22:00,48.0,7.7,28.91,SSW,200,0.0,0.0,19,0.00,,---,0.00,VWS V14.01,2013-10-20 03:22:00,
2013-10-19 22:24:00,48.0,7.7,28.91,SSW,197,0.0,0.0,19,0.00,,---,0.00,VWS V14.01,2013-10-20 03:24:00,
2013-10-19 22:25:00,48.0,7.7,28.91,SSW,197,0.0,0.0,19,0.00,,---,0.00,VWS V14.01,2013-10-20 03:25:00,
2013-10-19 22:26:00,48.0,7.7,28.91,SSW,197,0.0,0.0,19,0.00,,---,0.00,VWS V14.01,2013-10-20 03:26:00,
2013-10-19 22:27:00,48.0,7.7,28.91,SSW,197,0.0,0.0,19,0.00,,---,0.00,VWS V14.01,2013-10-20 03:27:00,
2013-10-19 22:29:00,48.0,7.7,28.91,SW,219,3.6,3.6,19,0.00,,---,0.00,VWS V14.01,2013-10-20 03:29:00,
2013-10-19 22:30:00,48.0,7.7,28.91,SSW,202,2.2,3.1,19,0.00,,---,0.00,VWS V14.01,2013-10-20 03:30:00,
2013-10-19 22:31:00,48.0,7.7,28.91,South,187,2.2,2.2,19,0.00,,---,0.00,VWS V14.01,2013-10-20 03:31:00,
2013-10-19 22:32:00,48.0,7.7,28.91,South,187,0.0,0.0,19,0.00,,---,0.00,VWS V14.01,2013-10-20 03:32:00,
2013-10-19 22:34:00,48.0,7.7,28.91,South,187,0.0,0.0,19,0.00,,---,0.00,VWS V14.01,2013-10-20 03:34:00,
2013-10-19 22:36:00,48.0,7.7,28.91,South,186,0.0,0.0,19,0.00,,---,0.00,VWS V14.01,2013-10-20 03:36:00,
2013-10-19 22:37:00,48.0,7.7,28.91,South,186,0.0,0.0,19,0.00,,---,0.00,VWS V14.01,2013-10-20 03:37:00,
2013-10-19 22:39:00,48.0,7.7,28.91,South,186,0.0,0.0,19,0.00,,---,0.00,VWS V14.01,2013-10-20 03:39:00,
2013-10-19 22:40:00,48.0,7.7,28.91,SSW,192,0.0,2.7,19,0.00,,---,0.00,VWS V14.01,2013-10-20 03:40:00,
2013-10-19 22:41:00,48.0,7.7,28.91,SSW,192,0.0,0.0,19,0.00,,---,0.00,VWS V14.01,2013-10-20 03:41:00,
2013-10-19 22:43:00,48.0,7.7,28.91,South,179,0.0,0.0,19,0.00,,---,0.00,VWS V14.01,2013-10-20 03:43:00,
2013-10-19 22:44:00,48.0,7.7,28.91,South,179,0.0,0.0,19,0.00,,---,0.00,VWS V14.01,2013-10-20 03:44:00,
2013-10-19 22:45:00,48.0,7.7,28.91,South,179,0.0,0.0,19,0.00,,---,0.00,VWS V14.01,2013-10-20 03:45:00,
2013-10-19 22:46:00,48.0,7.7,28.91,South,179,0.0,0.0,19,0.00,,---,0.00,VWS V14.01,2013-10-20 03:46:00,
2013-10-19 22:47:00,48.0,7.7,28.91,South,179,0.0,0.0,19,0.00,,---,0.00,VWS V14.01,2013-10-20 03:47:00,
2013-10-19 22:48:00,48.0,7.7,28.91,South,178,0.0,0.0,19,0.00,,---,0.00,VWS V14.01,2013-10-20 03:48:00,
2013-10-19 22:49:00,48.0,7.7,28.91,West,267,2.2,2.2,19,0.00,,---,0.00,VWS V14.01,2013-10-20 03:49:00,
2013-10-19 22:50:00,48.0,7.7,28.91,West,267,0.0,2.2,19,0.00,,---,0.00,VWS V14.01,2013-10-20 03:50:00,
2013-10-19 22:51:00,48.0,7.7,28.91,SE,140,0.0,2.2,19,0.00,,---,0.00,VWS V14.01,2013-10-20 03:51:00,
2013-10-19 22:52:00,48.0,7.7,28.91,SE,140,0.0,0.0,19,0.00,,---,0.00,VWS V14.01,2013-10-20 03:52:00,
2013-10-19 22:53:00,48.0,7.7,28.91,South,171,0.0,0.0,19,0.00,,---,0.00,VWS V14.01,2013-10-20 03:53:00,
2013-10-19 22:54:00,48.0,7.7,28.91,South,171,0.0,0.0,19,0.00,,---,0.00,VWS V14.01,2013-10-20 03:54:00,
2013-10-19 22:55:00,48.0,7.7,28.91,South,171,0.0,0.0,19,0.00,,---,0.00,VWS V14.01,2013-10-20 03:55:00,
2013-10-19 22:57:00,48.0,7.7,28.91,SW,215,0.0,0.0,19,0.00,,---,0.00,VWS V14.01,2013-10-20 03:57:00,
2013-10-19 22:58:00,48.0,7.7,28.91,SSW,210,0.0,0.0,19,0.00,,---,0.00,VWS V14.01,2013-10-20 03:58:00,
2013-10-19 23:00:00,48.0,7.7,28.91,SSW,210,0.0,0.0,19,0.00,,---,0.00,VWS V14.01,2013-10-20 04:00:00,
2013-10-19 23:01:00,48.0,7.7,28.91,SSW,210,0.0,0.0,19,0.00,,---,0.00,VWS V14.01,2013-10-20 04:01:00,
2013-10-19 23:02:00,48.0,7.7,28.91,SSE,167,0.0,0.0,19,0.00,,---,0.00,VWS V14.01,2013-10-20 04:02:00,
2013-10-19 23:06:00,48.0,7.7,28.91,South,173,0.0,0.0,19,0.00,,---,0.00,VWS V14.01,2013-10-20 04:06:00,
2013-10-19 23:07:00,48.0,7.7,28.91,South,173,0.0,0.0,19,0.00,,---,0.00,VWS V14.01,2013-10-20 04:07:00,
2013-10-19 23:11:00,48.0,7.7,28.91,South,185,0.0,2.2,19,0.00,,---,0.00,VWS V14.01,2013-10-20 04:11:00,
2013-10-19 23:12:00,48.0,7.7,28.91,South,185,0.0,0.0,19,0.00,,---,0.00,VWS V14.01,2013-10-20 04:12:00,
2013-10-19 23:16:00,47.8,7.6,28.91,South,185,0.0,0.0,19,0.00,,---,0.00,VWS V14.01,2013-10-20 04:16:00,
2013-10-19 23:17:00,47.8,7.6,28.91,South,185,0.0,0.0,19,0.00,,---,0.00,VWS V14.01,2013-10-20 04:17:00,
2013-10-19 23:21:00,47.8,7.6,28.91,South,185,0.0,0.0,19,0.00,,---,0.00,VWS V14.01,2013-10-20 04:21:00,
2013-10-19 23:22:00,47.8,7.6,28.91,South,185,0.0,0.0,19,0.00,,---,0.00,VWS V14.01,2013-10-20 04:22:00,
2013-10-19 23:26:00,47.8,7.6,28.91,South,190,0.0,0.0,19,0.00,,---,0.00,VWS V14.01,2013-10-20 04:26:00,
2013-10-19 23:27:00,47.8,7.6,28.91,South,190,0.0,0.0,19,0.00,,---,0.00,VWS V14.01,2013-10-20 04:27:00,
2013-10-19 23:31:00,47.7,7.4,28.91,South,191,0.0,0.0,19,0.00,,---,0.00,VWS V14.01,2013-10-20 04:31:00,
2013-10-19 23:32:00,47.7,7.4,28.91,South,183,0.0,0.0,19,0.00,,---,0.00,VWS V14.01,2013-10-20 04:32:00,
2013-10-19 23:33:00,47.7,7.4,28.91,South,183,0.0,0.0,19,0.00,,---,0.00,VWS V14.01,2013-10-20 04:33:00,
2013-10-19 23:36:00,47.7,7.4,28.91,South,175,2.7,2.7,19,0.00,,---,0.00,VWS V14.01,2013-10-20 04:36:00,
2013-10-19 23:37:00,47.7,7.4,28.91,South,175,0.0,0.0,19,0.00,,---,0.00,VWS V14.01,2013-10-20 04:37:00,
2013-10-19 23:38:00,47.7,7.4,28.91,South,175,0.0,0.0,19,0.00,,---,0.00,VWS V14.01,2013-10-20 04:38:00,
2013-10-19 23:41:00,47.5,7.3,28.88,South,175,0.0,0.0,19,0.00,,---,0.00,VWS V14.01,2013-10-20 04:41:00,
2013-10-19 23:42:00,47.5,7.3,28.88,South,175,0.0,0.0,19,0.00,,---,0.00,VWS V14.01,2013-10-20 04:42:00,
2013-10-19 23:43:00,47.5,7.3,28.88,South,175,0.0,0.0,19,0.00,,---,0.00,VWS V14.01,2013-10-20 04:43:00,
2013-10-19 23:46:00,47.5,7.3,28.88,SSE,164,0.0,2.7,19,0.00,,---,0.00,VWS V14.01,2013-10-20 04:46:00,
2013-10-19 23:47:00,47.5,7.3,28.88,SSE,164,0.0,0.0,19,0.00,,---,0.00,VWS V14.01,2013-10-20 04:47:00,
2013-10-19 23:48:00,47.5,7.3,28.88,SSE,164,0.0,0.0,19,0.00,,---,0.00,VWS V14.01,2013-10-20 04:48:00,
2013-10-19 23:51:00,47.5,7.3,28.88,SSE,156,0.0,0.0,19,0.00,,---,0.00,VWS V14.01,2013-10-20 04:51:00,
2013-10-19 23:52:00,47.5,7.3,28.88,SSE,159,0.0,0.0,19,0.00,,---,0.00,VWS V14.01,2013-10-20 04:52:00,
2013-10-19 23:53:00,47.5,7.3,28.88,SSE,159,0.0,0.0,19,0.00,,---,0.00,VWS V14.01,2013-10-20 04:53:00,
2013-10-19 23:57:00,47.5,7.3,28.88,South,179,0.0,3.1,19,0.00,,---,0.00,VWS V14.01,2013-10-20 04:57:00,
2013-10-19 23:58:00,47.5,7.3,28.88,South,179,0.0,0.0,19,0.00,,---,0.00,VWS V14.01,2013-10-20 04:58:00,